Wetterdaten: Sonntag, 15.01.2023
Datum Zeit Temp. Aussen Temp. o. S. Temp +5cm Feuchte Auss Luftdruck Regen Sonnenschein Regendauer Solar Windben Empfang
15.01.2023 00:00 9,1 C 8,3 C 3,9 C 86 % 999,2 hPa 0,0 l/m 0 min 2 min 0 W/m 19,3 km/h (3 Bft) 82,98 %
15.01.2023 00:02 9,0 C 7,8 C 3,9 C 85 % 999,3 hPa 0,0 l/m 0 min 2 min 0 W/m 35,4 km/h (5 Bft) 97,06 %
15.01.2023 00:04 8,9 C 7,8 C 3,9 C 85 % 999,2 hPa 0,0 l/m 0 min 2 min 0 W/m 16,1 km/h (3 Bft) 95,74 %
15.01.2023 00:07 8,9 C 7,8 C 3,9 C 85 % 999,4 hPa 0,0 l/m 0 min 3 min 0 W/m 22,5 km/h (4 Bft) 98,70 %
15.01.2023 00:08 8,9 C 7,8 C 3,9 C 85 % 999,4 hPa 0,0 l/m 0 min 1 min 0 W/m 25,7 km/h (4 Bft) 100,00 %
15.01.2023 00:12 8,8 C 7,8 C 3,9 C 85 % 999,8 hPa 0,0 l/m 0 min 4 min 0 W/m 29,0 km/h (5 Bft) 100,00 %
15.01.2023 00:14 8,8 C 7,8 C 3,9 C 86 % 1000,0 hPa 0,0 l/m 0 min 2 min 0 W/m 35,4 km/h (5 Bft) 100,00 %
15.01.2023 00:16 8,6 C 7,2 C 3,3 C 86 % 1000,1 hPa 0,2 l/m 0 min 2 min 0 W/m 22,5 km/h (4 Bft) 97,87 %
15.01.2023 00:18 8,3 C 6,7 C 3,3 C 86 % 1000,1 hPa 0,0 l/m 0 min 2 min 0 W/m 22,5 km/h (4 Bft) 100,00 %
15.01.2023 00:20 8,1 C 6,7 C 3,3 C 87 % 1000,1 hPa 0,0 l/m 0 min 2 min 0 W/m 22,5 km/h (4 Bft) 100,00 %
15.01.2023 00:22 7,8 C 6,1 C 2,8 C 88 % 1000,2 hPa 0,2 l/m 0 min 2 min 0 W/m 22,5 km/h (4 Bft) 92,45 %
15.01.2023 00:24 7,5 C 6,1 C 2,8 C 88 % 1000,1 hPa 0,0 l/m 0 min 2 min 0 W/m 19,3 km/h (3 Bft) 73,91 %
15.01.2023 00:26 7,3 C 5,6 C 2,8 C 89 % 1000,1 hPa 0,2 l/m 0 min 2 min 0 W/m 16,1 km/h (3 Bft) 93,62 %
15.01.2023 00:28 7,2 C 6,1 C 2,8 C 90 % 1000,1 hPa 0,0 l/m 0 min 2 min 0 W/m 19,3 km/h (3 Bft) 100,00 %
15.01.2023 00:30 7,1 C 6,1 C 2,8 C 90 % 1000,2 hPa 0,0 l/m 0 min 2 min 0 W/m 22,5 km/h (4 Bft) 97,87 %
15.01.2023 00:32 7,0 C 6,1 C 2,8 C 91 % 1000,2 hPa 0,0 l/m 0 min 2 min 0 W/m 16,1 km/h (3 Bft) 100,00 %
15.01.2023 00:34 6,9 C 5,6 C 2,8 C 91 % 1000,2 hPa 0,2 l/m 0 min 2 min 0 W/m 16,1 km/h (3 Bft) 100,00 %
15.01.2023 00:36 6,8 C 5,6 C 2,8 C 92 % 1000,0 hPa 0,0 l/m 0 min 2 min 0 W/m 12,9 km/h (3 Bft) 97,87 %
15.01.2023 00:38 6,8 C 5,6 C 2,8 C 92 % 1000,2 hPa 0,0 l/m 0 min 2 min 0 W/m 16,1 km/h (3 Bft) 95,65 %
15.01.2023 00:40 6,8 C 5,6 C 2,8 C 93 % 1000,1 hPa 0,0 l/m 0 min 2 min 0 W/m 9,7 km/h (2 Bft) 93,62 %
15.01.2023 00:42 6,7 C 5,6 C 2,8 C 93 % 1000,1 hPa 0,2 l/m 0 min 2 min 0 W/m 12,9 km/h (3 Bft) 95,74 %
15.01.2023 00:44 6,7 C 5,6 C 3,3 C 93 % 1000,1 hPa 0,0 l/m 0 min 2 min 0 W/m 12,9 km/h (3 Bft) 95,74 %
15.01.2023 00:46 6,7 C 5,6 C 3,3 C 93 % 1000,1 hPa 0,0 l/m 0 min 2 min 0 W/m 12,9 km/h (3 Bft) 91,49 %
15.01.2023 00:48 6,7 C 5,6 C 2,8 C 93 % 1000,2 hPa 0,2 l/m 0 min 2 min 0 W/m 9,7 km/h (2 Bft) 95,74 %
15.01.2023 00:50 6,7 C 5,6 C 2,8 C 93 % 1000,2 hPa 0,0 l/m 0 min 2 min 0 W/m 6,4 km/h (2 Bft) 95,74 %
15.01.2023 00:52 6,7 C 5,6 C 3,3 C 94 % 1000,3 hPa 0,2 l/m 0 min 2 min 0 W/m 6,4 km/h (2 Bft) 91,30 %
15.01.2023 00:54 6,7 C 5,6 C 3,3 C 94 % 1000,4 hPa 0,0 l/m 0 min 2 min 0 W/m 12,9 km/h (3 Bft) 91,49 %
15.01.2023 00:56 6,7 C 5,6 C 3,3 C 94 % 1000,4 hPa 0,0 l/m 0 min 2 min 0 W/m 16,1 km/h (3 Bft) 95,74 %
15.01.2023 00:58 6,7 C 5,6 C 2,8 C 94 % 1000,6 hPa 0,2 l/m 0 min 2 min 0 W/m 12,9 km/h (3 Bft) 91,49 %
15.01.2023 01:00 6,7 C 5,6 C 3,3 C 94 % 1000,4 hPa 0,0 l/m 0 min 2 min 0 W/m 6,4 km/h (2 Bft) 93,62 %
15.01.2023 01:02 6,7 C 6,1 C 3,3 C 94 % 1000,4 hPa 0,0 l/m 0 min 2 min 0 W/m 12,9 km/h (3 Bft) 91,49 %
15.01.2023 01:04 6,7 C 6,1 C 3,3 C 94 % 1000,3 hPa 0,0 l/m 0 min 0 min 0 W/m 6,4 km/h (2 Bft) 91,49 %
15.01.2023 01:06 6,7 C 6,1 C 3,3 C 94 % 1000,2 hPa 0,0 l/m 0 min 0 min 0 W/m 6,4 km/h (2 Bft) 93,48 %
15.01.2023 01:08 6,7 C 6,1 C 3,3 C 95 % 1000,3 hPa 0,0 l/m 0 min 0 min 0 W/m 9,7 km/h (2 Bft) 91,49 %
15.01.2023 01:10 6,7 C 6,1 C 3,3 C 95 % 1000,4 hPa 0,0 l/m 0 min 0 min 0 W/m 12,9 km/h (3 Bft) 91,49 %
15.01.2023 01:12 6,7 C 6,1 C 3,3 C 95 % 1000,4 hPa 0,0 l/m 0 min 0 min 0 W/m 6,4 km/h (2 Bft) 91,49 %
15.01.2023 01:14 6,7 C 6,1 C 3,3 C 95 % 1000,4 hPa 0,0 l/m 0 min 0 min 0 W/m 9,7 km/h (2 Bft) 87,23 %
15.01.2023 01:16 6,7 C 6,1 C 3,3 C 95 % 1000,4 hPa 0,0 l/m 0 min 0 min 0 W/m 9,7 km/h (2 Bft) 93,62 %
15.01.2023 01:18 6,7 C 6,1 C 3,3 C 95 % 1000,4 hPa 0,0 l/m 0 min 0 min 0 W/m 6,4 km/h (2 Bft) 93,62 %
15.01.2023 01:20 6,7 C 6,1 C 3,3 C 95 % 1000,5 hPa 0,0 l/m 0 min 0 min 0 W/m 12,9 km/h (3 Bft) 95,65 %
15.01.2023 01:22 6,7 C 6,1 C 3,3 C 95 % 1000,3 hPa 0,0 l/m 0 min 0 min 0 W/m 12,9 km/h (3 Bft) 91,49 %
15.01.2023 01:24 6,7 C 6,1 C 3,3 C 95 % 1000,3 hPa 0,0 l/m 0 min 0 min 0 W/m 16,1 km/h (3 Bft) 97,87 %
15.01.2023 01:26 6,6 C 6,1 C 3,3 C 95 % 1000,4 hPa 0,0 l/m 0 min 0 min 0 W/m 19,3 km/h (3 Bft) 95,74 %
15.01.2023 01:28 6,6 C 6,1 C 3,3 C 95 % 1000,2 hPa 0,0 l/m 0 min 0 min 0 W/m 19,3 km/h (3 Bft) 91,49 %
15.01.2023 01:30 6,6 C 6,1 C 2,8 C 95 % 1000,1 hPa 0,0 l/m 0 min 0 min 0 W/m 25,7 km/h (4 Bft) 97,87 %
15.01.2023 01:32 6,6 C 6,1 C 2,8 C 95 % 1000,0 hPa 0,0 l/m 0 min 0 min 0 W/m 12,9 km/h (3 Bft) 95,74 %
15.01.2023 01:34 6,6 C 6,1 C 2,8 C 95 % 1000,1 hPa 0,0 l/m 0 min 0 min 0 W/m 22,5 km/h (4 Bft) 97,83 %
15.01.2023 01:36 6,6 C 6,1 C 2,8 C 95 % 1000,1 hPa 0,0 l/m 0 min 0 min 0 W/m 12,9 km/h (3 Bft) 97,87 %
15.01.2023 01:38 6,6 C 6,1 C 2,8 C 95 % 1000,1 hPa 0,0 l/m 0 min 0 min 0 W/m 19,3 km/h (3 Bft) 100,00 %
15.01.2023 01:40 6,6 C 6,1 C 2,8 C 94 % 1000,0 hPa 0,0 l/m 0 min 0 min 0 W/m 16,1 km/h (3 Bft) 95,74 %
15.01.2023 01:42 6,6 C 6,1 C 2,8 C 94 % 1000,1 hPa 0,0 l/m 0 min 0 min 0 W/m 16,1 km/h (3 Bft) 100,00 %
15.01.2023 01:44 6,6 C 6,1 C 2,8 C 94 % 1000,1 hPa 0,0 l/m 0 min 0 min 0 W/m 9,7 km/h (2 Bft) 100,00 %
15.01.2023 01:46 6,6 C 6,1 C 2,8 C 94 % 1000,2 hPa 0,0 l/m 0 min 0 min 0 W/m 16,1 km/h (3 Bft) 97,87 %
15.01.2023 01:48 6,6 C 6,1 C 2,8 C 94 % 1000,3 hPa 0,0 l/m 0 min 0 min 0 W/m 22,5 km/h (4 Bft) 97,83 %
15.01.2023 01:50 6,6 C 6,1 C 2,8 C 94 % 1000,2 hPa 0,0 l/m 0 min 0 min 0 W/m 25,7 km/h (4 Bft) 100,00 %
15.01.2023 01:52 6,7 C 6,1 C 2,8 C 94 % 1000,1 hPa 0,0 l/m 0 min 0 min 0 W/m 29,0 km/h (5 Bft) 97,87 %
15.01.2023 01:54 6,6 C 6,1 C 2,8 C 93 % 1000,0 hPa 0,0 l/m 0 min 0 min 0 W/m 32,2 km/h (5 Bft) 100,00 %
15.01.2023 01:56 6,7 C 6,1 C 2,8 C 93 % 999,9 hPa 0,0 l/m 0 min 0 min 0 W/m 25,7 km/h (4 Bft) 100,00 %
15.01.2023 01:58 6,7 C 6,1 C 2,8 C 93 % 999,8 hPa 0,0 l/m 0 min 0 min 0 W/m 25,7 km/h (4 Bft) 97,87 %
15.01.2023 02:00 6,6 C 6,1 C 2,8 C 93 % 1000,1 hPa 0,0 l/m 0 min 0 min 0 W/m 19,3 km/h (3 Bft) 100,00 %
15.01.2023 02:02 6,7 C 6,1 C 2,8 C 92 % 999,9 hPa 0,0 l/m 0 min 0 min 0 W/m 22,5 km/h (4 Bft) 100,00 %
15.01.2023 02:04 6,6 C 6,1 C 2,8 C 92 % 1000,1 hPa 0,0 l/m 0 min 0 min 0 W/m 22,5 km/h (4 Bft) 97,87 %
15.01.2023 02:06 6,6 C 6,1 C 2,8 C 92 % 1000,0 hPa 0,0 l/m 0 min 0 min 0 W/m 32,2 km/h (5 Bft) 97,87 %
15.01.2023 02:08 6,6 C 6,1 C 2,8 C 92 % 1000,1 hPa 0,0 l/m 0 min 0 min 0 W/m 22,5 km/h (4 Bft) 95,74 %
15.01.2023 02:10 6,6 C 6,1 C 2,8 C 92 % 1000,2 hPa 0,0 l/m 0 min 0 min 0 W/m 16,1 km/h (3 Bft) 100,00 %
15.01.2023 02:12 6,6 C 6,1 C 2,8 C 92 % 1000,2 hPa 0,0 l/m 0 min 0 min 0 W/m 19,3 km/h (3 Bft) 100,00 %
15.01.2023 02:14 6,6 C 6,1 C 2,8 C 92 % 1000,2 hPa 0,0 l/m 0 min 0 min 0 W/m 22,5 km/h (4 Bft) 100,00 %
15.01.2023 02:16 6,6 C 6,1 C 2,8 C 91 % 1000,3 hPa 0,0 l/m 0 min 0 min 0 W/m 16,1 km/h (3 Bft) 100,00 %
15.01.2023 02:18 6,6 C 6,1 C 2,8 C 91 % 1000,4 hPa 0,0 l/m 0 min 0 min 0 W/m 25,7 km/h (4 Bft) 56,52 %
15.01.2023 02:20 6,6 C 6,1 C 2,8 C 91 % 1000,4 hPa 0,0 l/m 0 min 0 min 0 W/m 19,3 km/h (3 Bft) 100,00 %
15.01.2023 02:22 6,6 C 6,1 C 2,8 C 91 % 1000,4 hPa 0,0 l/m 0 min 0 min 0 W/m 16,1 km/h (3 Bft) 100,00 %
15.01.2023 02:24 6,6 C 6,1 C 2,8 C 91 % 1000,4 hPa 0,0 l/m 0 min 0 min 0 W/m 22,5 km/h (4 Bft) 100,00 %
15.01.2023 02:26 6,6 C 6,1 C 2,8 C 91 % 1000,4 hPa 0,0 l/m 0 min 0 min 0 W/m 19,3 km/h (3 Bft) 100,00 %
15.01.2023 02:28 6,6 C 6,1 C 2,2 C 91 % 1000,4 hPa 0,0 l/m 0 min 0 min 0 W/m 16,1 km/h (3 Bft) 93,62 %
15.01.2023 02:30 6,6 C 6,1 C 2,2 C 90 % 1000,4 hPa 0,0 l/m 0 min 0 min 0 W/m 19,3 km/h (3 Bft) 100,00 %
15.01.2023 02:32 6,5 C 6,1 C 2,2 C 90 % 1000,3 hPa 0,0 l/m 0 min 0 min 0 W/m 22,5 km/h (4 Bft) 100,00 %
15.01.2023 02:34 6,5 C 6,1 C 2,2 C 90 % 1000,3 hPa 0,0 l/m 0 min 0 min 0 W/m 16,1 km/h (3 Bft) 100,00 %
15.01.2023 02:36 6,5 C 6,1 C 2,2 C 90 % 1000,3 hPa 0,0 l/m 0 min 0 min 0 W/m 22,5 km/h (4 Bft) 97,87 %
15.01.2023 02:38 6,5 C 6,1 C 2,2 C 90 % 1000,3 hPa 0,0 l/m 0 min 0 min 0 W/m 16,1 km/h (3 Bft) 97,87 %
15.01.2023 02:40 6,5 C 6,1 C 2,2 C 90 % 1000,4 hPa 0,0 l/m 0 min 0 min 0 W/m 25,7 km/h (4 Bft) 97,87 %
15.01.2023 02:42 6,5 C 6,1 C 2,2 C 90 % 1000,3 hPa 0,0 l/m 0 min 0 min 0 W/m 29,0 km/h (5 Bft) 95,74 %
15.01.2023 02:44 6,6 C 6,1 C 2,2 C 89 % 1000,3 hPa 0,0 l/m 0 min 0 min 0 W/m 25,7 km/h (4 Bft) 97,83 %
15.01.2023 02:46 6,6 C 6,1 C 2,2 C 89 % 1000,4 hPa 0,0 l/m 0 min 0 min 0 W/m 16,1 km/h (3 Bft) 95,74 %
15.01.2023 02:48 6,6 C 6,1 C 2,2 C 89 % 1000,4 hPa 0,0 l/m 0 min 0 min 0 W/m 19,3 km/h (3 Bft) 93,62 %
15.01.2023 02:50 6,6 C 6,1 C 2,2 C 89 % 1000,4 hPa 0,0 l/m 0 min 0 min 0 W/m 19,3 km/h (3 Bft) 93,62 %
15.01.2023 02:52 6,6 C 6,1 C 2,2 C 89 % 1000,5 hPa 0,0 l/m 0 min 0 min 0 W/m 22,5 km/h (4 Bft) 97,87 %
15.01.2023 02:54 6,6 C 6,1 C 2,2 C 88 % 1000,5 hPa 0,0 l/m 0 min 0 min 0 W/m 25,7 km/h (4 Bft) 95,83 %
15.01.2023 02:56 6,6 C 6,1 C 2,2 C 89 % 1000,6 hPa 0,0 l/m 0 min 0 min 0 W/m 12,9 km/h (3 Bft) 95,65 %
15.01.2023 02:58 6,6 C 6,1 C 2,2 C 88 % 1000,6 hPa 0,0 l/m 0 min 0 min 0 W/m 22,5 km/h (4 Bft) 97,87 %
15.01.2023 03:00 6,6 C 6,1 C 2,2 C 88 % 1000,6 hPa 0,0 l/m 0 min 0 min 0 W/m 19,3 km/h (3 Bft) 95,74 %
15.01.2023 03:02 6,6 C 6,1 C 2,2 C 88 % 1000,5 hPa 0,0 l/m 0 min 0 min 0 W/m 16,1 km/h (3 Bft) 93,62 %
15.01.2023 03:04 6,6 C 6,1 C 2,2 C 88 % 1000,5 hPa 0,0 l/m 0 min 0 min 0 W/m 16,1 km/h (3 Bft) 93,62 %
15.01.2023 03:06 6,6 C 6,1 C 2,2 C 88 % 1000,5 hPa 0,0 l/m 0 min 0 min 0 W/m 29,0 km/h (5 Bft) 93,62 %
15.01.2023 03:08 6,6 C 6,1 C 2,2 C 88 % 1000,6 hPa 0,0 l/m 0 min 0 min 0 W/m 25,7 km/h (4 Bft) 95,74 %
15.01.2023 03:10 6,6 C 6,1 C 2,2 C 88 % 1000,5 hPa 0,0 l/m 0 min 0 min 0 W/m 12,9 km/h (3 Bft) 100,00 %
15.01.2023 03:12 6,6 C 6,1 C 2,2 C 88 % 1000,5 hPa 0,0 l/m 0 min 0 min 0 W/m 22,5 km/h (4 Bft) 97,87 %
15.01.2023 03:14 6,6 C 6,1 C 2,2 C 88 % 1000,3 hPa 0,0 l/m 0 min 0 min 0 W/m 19,3 km/h (3 Bft) 97,87 %
15.01.2023 03:16 6,6 C 6,1 C 2,2 C 88 % 1000,3 hPa 0,0 l/m 0 min 0 min 0 W/m 22,5 km/h (4 Bft) 97,87 %
15.01.2023 03:18 6,6 C 6,1 C 2,2 C 88 % 1000,5 hPa 0,0 l/m 0 min 0 min 0 W/m 22,5 km/h (4 Bft) 95,74 %
15.01.2023 03:20 6,6 C 5,6 C 2,2 C 88 % 1000,5 hPa 0,0 l/m 0 min 0 min 0 W/m 12,9 km/h (3 Bft) 95,74 %
15.01.2023 03:22 6,6 C 5,6 C 2,2 C 88 % 1000,5 hPa 0,0 l/m 0 min 0 min 0 W/m 9,7 km/h (2 Bft) 97,87 %
15.01.2023 03:24 6,6 C 5,6 C 2,2 C 88 % 1000,5 hPa 0,0 l/m 0 min 0 min 0 W/m 19,3 km/h (3 Bft) 95,65 %
15.01.2023 03:26 6,6 C 5,6 C 2,2 C 88 % 1000,4 hPa 0,0 l/m 0 min 0 min 0 W/m 16,1 km/h (3 Bft) 97,87 %
15.01.2023 03:28 6,6 C 5,6 C 2,2 C 88 % 1000,4 hPa 0,0 l/m 0 min 0 min 0 W/m 22,5 km/h (4 Bft) 95,74 %
15.01.2023 03:30 6,6 C 6,1 C 2,2 C 88 % 1000,3 hPa 0,0 l/m 0 min 0 min 0 W/m 22,5 km/h (4 Bft) 97,87 %
15.01.2023 03:32 6,6 C 6,1 C 2,2 C 88 % 1000,1 hPa 0,0 l/m 0 min 0 min 0 W/m 19,3 km/h (3 Bft) 97,87 %
15.01.2023 03:34 6,6 C 6,1 C 2,2 C 88 % 1000,2 hPa 0,0 l/m 0 min 0 min 0 W/m 22,5 km/h (4 Bft) 97,87 %
15.01.2023 03:36 6,6 C 6,1 C 2,2 C 88 % 1000,2 hPa 0,0 l/m 0 min 0 min 0 W/m 19,3 km/h (3 Bft) 97,83 %
15.01.2023 03:38 6,6 C 6,1 C 2,2 C 88 % 1000,2 hPa 0,0 l/m 0 min 0 min 0 W/m 19,3 km/h (3 Bft) 100,00 %
15.01.2023 03:40 6,6 C 6,1 C 2,2 C 88 % 1000,2 hPa 0,0 l/m 0 min 0 min 0 W/m 25,7 km/h (4 Bft) 100,00 %
15.01.2023 03:42 6,6 C 6,1 C 2,2 C 88 % 1000,2 hPa 0,0 l/m 0 min 0 min 0 W/m 22,5 km/h (4 Bft) 100,00 %
15.01.2023 03:44 6,6 C 6,1 C 2,2 C 88 % 1000,2 hPa 0,0 l/m 0 min 0 min 0 W/m 16,1 km/h (3 Bft) 100,00 %
15.01.2023 03:46 6,6 C 6,1 C 2,2 C 88 % 1000,1 hPa 0,0 l/m 0 min 0 min 0 W/m 16,1 km/h (3 Bft) 97,87 %
15.01.2023 03:48 6,6 C 6,1 C 2,2 C 88 % 1000,2 hPa 0,0 l/m 0 min 0 min 0 W/m 16,1 km/h (3 Bft) 100,00 %
15.01.2023 03:50 6,6 C 6,1 C 2,2 C 88 % 1000,2 hPa 0,0 l/m 0 min 0 min 0 W/m 35,4 km/h (5 Bft) 100,00 %
15.01.2023 03:52 6,6 C 6,1 C 2,2 C 88 % 1000,1 hPa 0,0 l/m 0 min 0 min 0 W/m 22,5 km/h (4 Bft) 100,00 %
15.01.2023 03:54 6,6 C 6,1 C 2,2 C 88 % 1000,0 hPa 0,0 l/m 0 min 0 min 0 W/m 25,7 km/h (4 Bft) 100,00 %
15.01.2023 03:56 6,6 C 6,1 C 2,2 C 88 % 1000,0 hPa 0,0 l/m 0 min 0 min 0 W/m 19,3 km/h (3 Bft) 97,87 %
15.01.2023 03:58 6,6 C 6,1 C 2,2 C 88 % 1000,0 hPa 0,0 l/m 0 min 0 min 0 W/m 19,3 km/h (3 Bft) 97,87 %
15.01.2023 04:00 6,6 C 6,1 C 2,2 C 88 % 1000,0 hPa 0,0 l/m 0 min 0 min 0 W/m 16,1 km/h (3 Bft) 100,00 %
15.01.2023 04:05 6,6 C 6,1 C 2,2 C 88 % 1000,1 hPa 0,0 l/m 0 min 0 min 0 W/m 12,9 km/h (3 Bft) 4,76 %
15.01.2023 04:06 6,6 C 6,1 C 2,2 C 88 % 1000,1 hPa 0,0 l/m 0 min 0 min 0 W/m 9,7 km/h (2 Bft) 100,00 %
15.01.2023 04:08 6,6 C 6,1 C 2,2 C 88 % 1000,1 hPa 0,0 l/m 0 min 0 min 0 W/m 16,1 km/h (3 Bft) 100,00 %
15.01.2023 04:10 6,6 C 6,1 C 2,2 C 88 % 1000,1 hPa 0,0 l/m 0 min 0 min 0 W/m 22,5 km/h (4 Bft) 95,74 %
15.01.2023 04:12 6,6 C 6,1 C 2,2 C 88 % 999,9 hPa 0,0 l/m 0 min 0 min 0 W/m 22,5 km/h (4 Bft) 97,87 %
15.01.2023 04:14 6,6 C 6,1 C 2,2 C 88 % 1000,0 hPa 0,0 l/m 0 min 0 min 0 W/m 16,1 km/h (3 Bft) 97,87 %
15.01.2023 04:16 6,6 C 6,1 C 2,2 C 88 % 1000,0 hPa 0,0 l/m 0 min 0 min 0 W/m 22,5 km/h (4 Bft) 97,87 %
15.01.2023 04:18 6,6 C 6,1 C 2,2 C 88 % 1000,0 hPa 0,0 l/m 0 min 0 min 0 W/m 22,5 km/h (4 Bft) 95,65 %
15.01.2023 04:20 6,6 C 6,1 C 2,2 C 88 % 999,9 hPa 0,0 l/m 0 min 0 min 0 W/m 19,3 km/h (3 Bft) 95,74 %
15.01.2023 04:22 6,6 C 6,1 C 2,2 C 88 % 999,9 hPa 0,0 l/m 0 min 0 min 0 W/m 22,5 km/h (4 Bft) 95,74 %
15.01.2023 04:24 6,6 C 6,1 C 2,8 C 88 % 999,9 hPa 0,0 l/m 0 min 0 min 0 W/m 29,0 km/h (5 Bft) 97,87 %
15.01.2023 04:26 6,6 C 6,1 C 2,8 C 88 % 999,8 hPa 0,0 l/m 0 min 0 min 0 W/m 22,5 km/h (4 Bft) 95,74 %
15.01.2023 04:28 6,6 C 6,1 C 2,8 C 88 % 999,7 hPa 0,0 l/m 0 min 0 min 0 W/m 12,9 km/h (3 Bft) 93,62 %
15.01.2023 04:30 6,6 C 6,1 C 2,8 C 88 % 999,7 hPa 0,0 l/m 0 min 0 min 0 W/m 19,3 km/h (3 Bft) 97,87 %
15.01.2023 04:32 6,6 C 6,1 C 2,8 C 88 % 999,8 hPa 0,0 l/m 0 min 0 min 0 W/m 19,3 km/h (3 Bft) 93,62 %
15.01.2023 04:34 6,6 C 6,1 C 2,8 C 88 % 999,7 hPa 0,0 l/m 0 min 0 min 0 W/m 32,2 km/h (5 Bft) 93,48 %
15.01.2023 04:36 6,6 C 6,1 C 2,8 C 88 % 999,8 hPa 0,0 l/m 0 min 0 min 0 W/m 29,0 km/h (5 Bft) 95,74 %
15.01.2023 04:38 6,6 C 6,1 C 2,8 C 88 % 999,7 hPa 0,0 l/m 0 min 0 min 0 W/m 25,7 km/h (4 Bft) 93,62 %
15.01.2023 04:40 6,6 C 6,1 C 2,8 C 88 % 999,8 hPa 0,0 l/m 0 min 0 min 0 W/m 22,5 km/h (4 Bft) 95,74 %
15.01.2023 04:42 6,6 C 6,1 C 2,8 C 88 % 999,7 hPa 0,0 l/m 0 min 0 min 0 W/m 19,3 km/h (3 Bft) 95,74 %
15.01.2023 04:44 6,6 C 6,1 C 2,8 C 88 % 999,8 hPa 0,0 l/m 0 min 0 min 0 W/m 22,5 km/h (4 Bft) 93,62 %
15.01.2023 04:46 6,7 C 6,1 C 2,8 C 88 % 999,9 hPa 0,0 l/m 0 min 0 min 0 W/m 22,5 km/h (4 Bft) 95,65 %
15.01.2023 04:48 6,6 C 6,1 C 2,8 C 88 % 999,8 hPa 0,0 l/m 0 min 0 min 0 W/m 25,7 km/h (4 Bft) 87,18 %
15.01.2023 04:50 6,7 C 6,1 C 2,8 C 88 % 999,8 hPa 0,0 l/m 0 min 0 min 0 W/m 25,7 km/h (4 Bft) 91,67 %
15.01.2023 04:52 6,6 C 6,1 C 2,8 C 88 % 999,7 hPa 0,0 l/m 0 min 0 min 0 W/m 22,5 km/h (4 Bft) 93,62 %
15.01.2023 04:54 6,6 C 6,1 C 2,8 C 88 % 999,7 hPa 0,0 l/m 0 min 0 min 0 W/m 16,1 km/h (3 Bft) 92,86 %
15.01.2023 04:56 6,6 C 6,1 C 2,8 C 88 % 999,8 hPa 0,0 l/m 0 min 0 min 0 W/m 25,7 km/h (4 Bft) 97,87 %
15.01.2023 04:58 6,7 C 6,1 C 2,8 C 88 % 999,8 hPa 0,0 l/m 0 min 0 min 0 W/m 25,7 km/h (4 Bft) 100,00 %
15.01.2023 05:00 6,6 C 6,1 C 3,3 C 88 % 999,8 hPa 0,0 l/m 0 min 0 min 0 W/m 16,1 km/h (3 Bft) 100,00 %
15.01.2023 05:02 6,7 C 6,1 C 3,3 C 88 % 999,8 hPa 0,0 l/m 0 min 0 min 0 W/m 22,5 km/h (4 Bft) 100,00 %
15.01.2023 05:04 6,7 C 6,1 C 3,3 C 88 % 999,8 hPa 0,0 l/m 0 min 0 min 0 W/m 19,3 km/h (3 Bft) 97,87 %
15.01.2023 05:06 6,7 C 6,1 C 3,3 C 88 % 999,8 hPa 0,0 l/m 0 min 0 min 0 W/m 19,3 km/h (3 Bft) 95,74 %
15.01.2023 05:08 6,6 C 6,1 C 3,3 C 88 % 999,8 hPa 0,0 l/m 0 min 0 min 0 W/m 35,4 km/h (5 Bft) 100,00 %
15.01.2023 05:10 6,7 C 6,1 C 3,3 C 88 % 999,8 hPa 0,0 l/m 0 min 0 min 0 W/m 19,3 km/h (3 Bft) 97,87 %
15.01.2023 05:12 6,6 C 6,1 C 3,3 C 88 % 999,8 hPa 0,0 l/m 0 min 0 min 0 W/m 22,5 km/h (4 Bft) 97,87 %
15.01.2023 05:14 6,7 C 6,1 C 3,3 C 88 % 999,7 hPa 0,0 l/m 0 min 0 min 0 W/m 25,7 km/h (4 Bft) 93,48 %
15.01.2023 05:16 6,6 C 6,1 C 3,3 C 88 % 999,7 hPa 0,0 l/m 0 min 0 min 0 W/m 22,5 km/h (4 Bft) 91,49 %
15.01.2023 05:18 6,6 C 6,1 C 3,3 C 88 % 999,9 hPa 0,0 l/m 0 min 0 min 0 W/m 19,3 km/h (3 Bft) 100,00 %
15.01.2023 05:20 6,6 C 6,1 C 3,3 C 87 % 999,8 hPa 0,0 l/m 0 min 0 min 0 W/m 16,1 km/h (3 Bft) 100,00 %
15.01.2023 05:22 6,6 C 6,1 C 3,3 C 87 % 999,8 hPa 0,0 l/m 0 min 0 min 0 W/m 22,5 km/h (4 Bft) 97,87 %
15.01.2023 05:24 6,6 C 6,1 C 3,3 C 87 % 999,9 hPa 0,0 l/m 0 min 0 min 0 W/m 25,7 km/h (4 Bft) 97,87 %
15.01.2023 05:26 6,6 C 6,1 C 3,3 C 88 % 1000,0 hPa 0,0 l/m 0 min 0 min 0 W/m 19,3 km/h (3 Bft) 95,74 %
15.01.2023 05:28 6,6 C 6,1 C 3,3 C 88 % 999,9 hPa 0,0 l/m 0 min 0 min 0 W/m 22,5 km/h (4 Bft) 84,78 %
15.01.2023 05:30 6,6 C 6,1 C 3,3 C 88 % 999,9 hPa 0,0 l/m 0 min 0 min 0 W/m 19,3 km/h (3 Bft) 91,49 %
15.01.2023 05:32 6,6 C 6,1 C 3,3 C 88 % 999,9 hPa 0,0 l/m 0 min 0 min 0 W/m 16,1 km/h (3 Bft) 82,98 %
15.01.2023 05:34 6,6 C 6,1 C 3,3 C 88 % 1000,0 hPa 0,0 l/m 0 min 0 min 0 W/m 29,0 km/h (5 Bft) 89,36 %
15.01.2023 05:36 6,6 C 6,1 C 3,3 C 88 % 999,8 hPa 0,0 l/m 0 min 0 min 0 W/m 22,5 km/h (4 Bft) 85,11 %
15.01.2023 05:38 6,6 C 6,1 C 3,3 C 88 % 999,8 hPa 0,0 l/m 0 min 0 min 0 W/m 22,5 km/h (4 Bft) 87,23 %
15.01.2023 05:40 6,6 C 6,1 C 3,3 C 88 % 999,8 hPa 0,0 l/m 0 min 0 min 0 W/m 22,5 km/h (4 Bft) 76,60 %
15.01.2023 05:42 6,6 C 6,1 C 3,3 C 88 % 999,9 hPa 0,0 l/m 0 min 0 min 0 W/m 32,2 km/h (5 Bft) 71,74 %
15.01.2023 05:44 6,6 C 6,1 C 3,3 C 87 % 999,8 hPa 0,0 l/m 0 min 0 min 0 W/m 29,0 km/h (5 Bft) 48,94 %
15.01.2023 05:46 6,7 C 6,1 C 3,3 C 87 % 999,8 hPa 0,0 l/m 0 min 0 min 0 W/m 19,3 km/h (3 Bft) 63,83 %
15.01.2023 05:48 6,7 C 6,1 C 3,3 C 87 % 999,7 hPa 0,0 l/m 0 min 0 min 0 W/m 22,5 km/h (4 Bft) 25,71 %
15.01.2023 05:50 6,7 C 6,1 C 3,3 C 87 % 999,7 hPa 0,0 l/m 0 min 0 min 0 W/m 22,5 km/h (4 Bft) 32,20 %
15.01.2023 05:52 6,6 C 6,1 C 3,3 C 87 % 999,7 hPa 0,0 l/m 0 min 0 min 0 W/m 16,1 km/h (3 Bft) 54,29 %
15.01.2023 05:54 6,6 C 6,1 C 3,3 C 87 % 999,7 hPa 0,0 l/m 0 min 0 min 0 W/m 25,7 km/h (4 Bft) 96,61 %
15.01.2023 05:56 6,6 C 6,1 C 3,3 C 87 % 999,7 hPa 0,0 l/m 0 min 0 min 0 W/m 25,7 km/h (4 Bft) 95,65 %
15.01.2023 05:58 6,6 C 6,1 C 3,3 C 87 % 999,8 hPa 0,0 l/m 0 min 0 min 0 W/m 25,7 km/h (4 Bft) 94,29 %
15.01.2023 06:00 6,6 C 6,1 C 3,3 C 87 % 999,8 hPa 0,0 l/m 0 min 0 min 0 W/m 25,7 km/h (4 Bft) 98,31 %
15.01.2023 06:02 6,6 C 6,1 C 3,3 C 87 % 999,8 hPa 0,0 l/m 0 min 0 min 0 W/m 22,5 km/h (4 Bft) 97,14 %
15.01.2023 06:04 6,6 C 6,1 C 3,3 C 87 % 999,8 hPa 0,0 l/m 0 min 0 min 0 W/m 22,5 km/h (4 Bft) 95,74 %
15.01.2023 06:07 6,6 C 6,1 C 3,3 C 88 % 999,8 hPa 0,0 l/m 0 min 0 min 0 W/m 16,1 km/h (3 Bft) 96,43 %
15.01.2023 06:08 6,6 C 6,1 C 3,3 C 88 % 999,8 hPa 0,0 l/m 0 min 0 min 0 W/m 16,1 km/h (3 Bft) 100,00 %
15.01.2023 06:10 6,6 C 6,1 C 3,3 C 88 % 999,8 hPa 0,0 l/m 0 min 0 min 0 W/m 35,4 km/h (5 Bft) 97,87 %
15.01.2023 06:12 6,6 C 6,1 C 3,3 C 87 % 999,9 hPa 0,0 l/m 0 min 0 min 0 W/m 32,2 km/h (5 Bft) 97,83 %
15.01.2023 06:14 6,6 C 6,1 C 3,3 C 87 % 999,9 hPa 0,0 l/m 0 min 0 min 0 W/m 22,5 km/h (4 Bft) 95,74 %
15.01.2023 06:16 6,6 C 6,1 C 3,3 C 88 % 999,9 hPa 0,0 l/m 0 min 0 min 0 W/m 16,1 km/h (3 Bft) 97,87 %
15.01.2023 06:18 6,6 C 6,1 C 3,3 C 88 % 1000,0 hPa 0,0 l/m 0 min 0 min 0 W/m 29,0 km/h (5 Bft) 100,00 %
15.01.2023 06:20 6,6 C 6,1 C 3,3 C 88 % 1000,0 hPa 0,0 l/m 0 min 0 min 0 W/m 38,6 km/h (5 Bft) 97,87 %
15.01.2023 06:22 6,6 C 6,1 C 3,3 C 88 % 999,9 hPa 0,0 l/m 0 min 0 min 0 W/m 22,5 km/h (4 Bft) 95,74 %
15.01.2023 06:24 6,6 C 6,1 C 3,3 C 88 % 1000,0 hPa 0,0 l/m 0 min 0 min 0 W/m 19,3 km/h (3 Bft) 93,62 %
15.01.2023 06:26 6,6 C 6,1 C 3,3 C 88 % 999,9 hPa 0,0 l/m 0 min 0 min 0 W/m 19,3 km/h (3 Bft) 95,65 %
15.01.2023 06:28 6,6 C 6,1 C 3,3 C 88 % 999,9 hPa 0,0 l/m 0 min 0 min 0 W/m 22,5 km/h (4 Bft) 97,87 %
15.01.2023 06:30 6,6 C 6,1 C 3,3 C 88 % 1000,0 hPa 0,0 l/m 0 min 0 min 0 W/m 19,3 km/h (3 Bft) 97,87 %
15.01.2023 06:32 6,6 C 6,1 C 3,3 C 88 % 1000,1 hPa 0,0 l/m 0 min 0 min 0 W/m 12,9 km/h (3 Bft) 95,74 %
15.01.2023 06:34 6,6 C 6,1 C 3,3 C 88 % 1000,0 hPa 0,0 l/m 0 min 0 min 0 W/m 29,0 km/h (5 Bft) 93,62 %
15.01.2023 06:36 6,6 C 6,1 C 3,3 C 88 % 999,9 hPa 0,0 l/m 0 min 0 min 0 W/m 16,1 km/h (3 Bft) 87,23 %
15.01.2023 06:38 6,6 C 6,1 C 3,3 C 88 % 999,9 hPa 0,0 l/m 0 min 0 min 0 W/m 16,1 km/h (3 Bft) 97,87 %
15.01.2023 06:40 6,6 C 6,1 C 3,3 C 88 % 999,9 hPa 0,0 l/m 0 min 0 min 0 W/m 29,0 km/h (5 Bft) 91,49 %
15.01.2023 06:42 6,6 C 6,1 C 3,3 C 88 % 999,8 hPa 0,0 l/m 0 min 0 min 0 W/m 16,1 km/h (3 Bft) 97,83 %
15.01.2023 06:44 6,6 C 6,1 C 3,3 C 87 % 999,7 hPa 0,0 l/m 0 min 0 min 0 W/m 16,1 km/h (3 Bft) 91,49 %
15.01.2023 06:46 6,6 C 6,1 C 3,3 C 87 % 999,8 hPa 0,0 l/m 0 min 0 min 0 W/m 29,0 km/h (5 Bft) 93,62 %
15.01.2023 06:48 6,6 C 6,1 C 3,3 C 88 % 999,7 hPa 0,0 l/m 0 min 0 min 0 W/m 29,0 km/h (5 Bft) 91,49 %
15.01.2023 06:50 6,6 C 6,1 C 3,3 C 88 % 999,9 hPa 0,0 l/m 0 min 0 min 0 W/m 16,1 km/h (3 Bft) 95,74 %
15.01.2023 06:52 6,6 C 6,1 C 3,3 C 88 % 999,9 hPa 0,0 l/m 0 min 0 min 0 W/m 22,5 km/h (4 Bft) 95,74 %
15.01.2023 06:54 6,6 C 6,1 C 3,3 C 87 % 999,9 hPa 0,0 l/m 0 min 0 min 0 W/m 25,7 km/h (4 Bft) 95,74 %
15.01.2023 06:56 6,6 C 6,1 C 3,3 C 87 % 999,9 hPa 0,0 l/m 0 min 0 min 0 W/m 12,9 km/h (3 Bft) 97,83 %
15.01.2023 06:58 6,6 C 6,1 C 3,3 C 88 % 999,8 hPa 0,0 l/m 0 min 0 min 0 W/m 16,1 km/h (3 Bft) 100,00 %
15.01.2023 07:00 6,6 C 5,6 C 3,3 C 87 % 999,9 hPa 0,0 l/m 0 min 0 min 0 W/m 12,9 km/h (3 Bft) 97,87 %
15.01.2023 07:02 6,6 C 5,6 C 3,3 C 87 % 999,9 hPa 0,0 l/m 0 min 0 min 0 W/m 12,9 km/h (3 Bft) 100,00 %
15.01.2023 07:04 6,6 C 6,1 C 3,3 C 87 % 1000,0 hPa 0,0 l/m 0 min 0 min 0 W/m 19,3 km/h (3 Bft) 95,74 %
15.01.2023 07:06 6,6 C 6,1 C 3,3 C 87 % 1000,1 hPa 0,0 l/m 0 min 0 min 0 W/m 25,7 km/h (4 Bft) 94,83 %
15.01.2023 07:08 6,6 C 6,1 C 3,3 C 87 % 1000,0 hPa 0,0 l/m 0 min 0 min 0 W/m 22,5 km/h (4 Bft) 94,44 %
15.01.2023 07:10 6,6 C 6,1 C 3,3 C 87 % 1000,0 hPa 0,0 l/m 0 min 0 min 0 W/m 19,3 km/h (3 Bft) 97,83 %
15.01.2023 07:12 6,6 C 6,1 C 3,3 C 87 % 1000,1 hPa 0,0 l/m 0 min 0 min 0 W/m 16,1 km/h (3 Bft) 93,62 %
15.01.2023 07:14 6,6 C 6,1 C 3,3 C 87 % 1000,1 hPa 0,0 l/m 0 min 0 min 0 W/m 29,0 km/h (5 Bft) 97,87 %
15.01.2023 07:16 6,6 C 6,1 C 3,3 C 87 % 1000,3 hPa 0,0 l/m 0 min 0 min 0 W/m 22,5 km/h (4 Bft) 93,62 %
15.01.2023 07:18 6,6 C 6,1 C 3,3 C 87 % 1000,2 hPa 0,0 l/m 0 min 0 min 0 W/m 22,5 km/h (4 Bft) 93,62 %
15.01.2023 07:20 6,6 C 6,1 C 3,3 C 87 % 1000,2 hPa 0,0 l/m 0 min 0 min 0 W/m 19,3 km/h (3 Bft) 97,87 %
15.01.2023 07:22 6,6 C 6,1 C 3,3 C 87 % 1000,2 hPa 0,0 l/m 0 min 0 min 0 W/m 19,3 km/h (3 Bft) 97,87 %
15.01.2023 07:24 6,6 C 6,1 C 3,3 C 88 % 1000,2 hPa 0,0 l/m 0 min 0 min 0 W/m 25,7 km/h (4 Bft) 97,83 %
15.01.2023 07:26 6,6 C 6,1 C 3,3 C 88 % 1000,1 hPa 0,0 l/m 0 min 0 min 0 W/m 22,5 km/h (4 Bft) 91,49 %
15.01.2023 07:28 6,6 C 6,1 C 3,3 C 88 % 1000,1 hPa 0,0 l/m 0 min 0 min 0 W/m 22,5 km/h (4 Bft) 97,87 %
15.01.2023 07:30 6,6 C 6,1 C 3,3 C 88 % 1000,1 hPa 0,0 l/m 0 min 0 min 0 W/m 22,5 km/h (4 Bft) 95,74 %
15.01.2023 07:32 6,6 C 6,1 C 3,3 C 88 % 1000,1 hPa 0,0 l/m 0 min 0 min 0 W/m 16,1 km/h (3 Bft) 97,87 %
15.01.2023 07:34 6,6 C 5,6 C 2,8 C 88 % 1000,2 hPa 0,0 l/m 0 min 0 min 0 W/m 29,0 km/h (5 Bft) 93,62 %
15.01.2023 07:36 6,6 C 5,6 C 2,8 C 88 % 1000,1 hPa 0,0 l/m 0 min 0 min 0 W/m 25,7 km/h (4 Bft) 93,62 %
15.01.2023 07:38 6,5 C 5,6 C 3,3 C 88 % 1000,1 hPa 0,0 l/m 0 min 0 min 0 W/m 19,3 km/h (3 Bft) 97,83 %
15.01.2023 07:40 6,5 C 5,6 C 2,8 C 88 % 1000,1 hPa 0,0 l/m 0 min 0 min 0 W/m 29,0 km/h (5 Bft) 97,87 %
15.01.2023 07:42 6,5 C 5,6 C 2,8 C 88 % 1000,1 hPa 0,0 l/m 0 min 0 min 0 W/m 19,3 km/h (3 Bft) 93,62 %
15.01.2023 07:44 6,5 C 5,6 C 2,8 C 88 % 1000,2 hPa 0,0 l/m 0 min 0 min 0 W/m 19,3 km/h (3 Bft) 95,74 %
15.01.2023 07:46 6,5 C 6,1 C 2,8 C 88 % 1000,3 hPa 0,0 l/m 0 min 0 min 0 W/m 25,7 km/h (4 Bft) 95,74 %
15.01.2023 07:48 6,5 C 5,6 C 2,8 C 88 % 1000,3 hPa 0,0 l/m 0 min 0 min 0 W/m 22,5 km/h (4 Bft) 95,74 %
15.01.2023 07:50 6,5 C 5,6 C 2,8 C 88 % 1000,2 hPa 0,0 l/m 0 min 0 min 0 W/m 16,1 km/h (3 Bft) 95,74 %
15.01.2023 07:52 6,5 C 5,6 C 2,8 C 88 % 1000,2 hPa 0,0 l/m 0 min 0 min 0 W/m 19,3 km/h (3 Bft) 95,65 %
15.01.2023 07:54 6,5 C 5,6 C 2,8 C 87 % 1000,1 hPa 0,0 l/m 0 min 0 min 0 W/m 22,5 km/h (4 Bft) 93,62 %
15.01.2023 07:56 6,5 C 5,6 C 2,8 C 87 % 1000,0 hPa 0,0 l/m 0 min 0 min 0 W/m 22,5 km/h (4 Bft) 95,74 %
15.01.2023 07:58 6,5 C 6,1 C 3,3 C 87 % 1000,1 hPa 0,0 l/m 0 min 0 min 0 W/m 38,6 km/h (5 Bft) 97,87 %
15.01.2023 08:00 6,5 C 6,1 C 3,3 C 87 % 1000,2 hPa 0,0 l/m 0 min 0 min 0 W/m 32,2 km/h (5 Bft) 93,62 %
15.01.2023 08:02 6,5 C 6,1 C 3,3 C 87 % 1000,1 hPa 0,0 l/m 0 min 0 min 0 W/m 35,4 km/h (5 Bft) 95,74 %
15.01.2023 08:04 6,5 C 6,1 C 3,3 C 87 % 1000,1 hPa 0,0 l/m 0 min 0 min 0 W/m 25,7 km/h (4 Bft) 95,74 %
15.01.2023 08:06 6,5 C 6,1 C 3,3 C 87 % 1000,1 hPa 0,0 l/m 0 min 0 min 0 W/m 22,5 km/h (4 Bft) 93,10 %
15.01.2023 08:08 6,5 C 6,1 C 3,3 C 87 % 1000,2 hPa 0,0 l/m 0 min 0 min 0 W/m 22,5 km/h (4 Bft) 97,14 %
15.01.2023 08:10 6,5 C 5,6 C 2,8 C 87 % 1000,2 hPa 0,0 l/m 0 min 0 min 0 W/m 22,5 km/h (4 Bft) 95,74 %
15.01.2023 08:12 6,5 C 5,6 C 2,8 C 87 % 1000,1 hPa 0,0 l/m 0 min 0 min 0 W/m 19,3 km/h (3 Bft) 97,87 %
15.01.2023 08:14 6,5 C 5,6 C 2,8 C 87 % 1000,2 hPa 0,0 l/m 0 min 0 min 0 W/m 19,3 km/h (3 Bft) 91,49 %
15.01.2023 08:16 6,5 C 5,6 C 2,8 C 87 % 1000,2 hPa 0,0 l/m 0 min 0 min 0 W/m 32,2 km/h (5 Bft) 97,87 %
15.01.2023 08:18 6,5 C 5,6 C 2,8 C 87 % 1000,2 hPa 0,0 l/m 0 min 0 min 0 W/m 32,2 km/h (5 Bft) 95,74 %
15.01.2023 08:20 6,5 C 5,6 C 2,8 C 87 % 1000,3 hPa 0,0 l/m 0 min 0 min 0 W/m 25,7 km/h (4 Bft) 97,87 %
15.01.2023 08:22 6,5 C 5,6 C 2,8 C 87 % 1000,2 hPa 0,0 l/m 0 min 0 min 0 W/m 19,3 km/h (3 Bft) 95,65 %
15.01.2023 08:24 6,4 C 5,6 C 2,8 C 87 % 1000,3 hPa 0,0 l/m 0 min 0 min 0 W/m 25,7 km/h (4 Bft) 93,62 %
15.01.2023 08:26 6,4 C 5,6 C 2,8 C 87 % 1000,3 hPa 0,0 l/m 0 min 0 min 0 W/m 29,0 km/h (5 Bft) 95,74 %
15.01.2023 08:28 6,4 C 5,6 C 2,8 C 87 % 1000,4 hPa 0,0 l/m 0 min 0 min 0 W/m 32,2 km/h (5 Bft) 95,74 %
15.01.2023 08:30 6,4 C 5,6 C 2,8 C 87 % 1000,4 hPa 0,0 l/m 0 min 0 min 0 W/m 38,6 km/h (5 Bft) 95,74 %
15.01.2023 08:32 6,4 C 5,6 C 2,8 C 87 % 1000,4 hPa 0,0 l/m 0 min 0 min 0 W/m 41,8 km/h (6 Bft) 95,74 %
15.01.2023 08:34 6,4 C 5,6 C 2,8 C 87 % 1000,3 hPa 0,0 l/m 0 min 0 min 0 W/m 25,7 km/h (4 Bft) 95,74 %
15.01.2023 08:36 6,4 C 5,6 C 2,8 C 87 % 1000,4 hPa 0,0 l/m 0 min 0 min 0 W/m 22,5 km/h (4 Bft) 95,65 %
15.01.2023 08:38 6,4 C 5,6 C 2,8 C 87 % 1000,5 hPa 0,0 l/m 0 min 0 min 0 W/m 19,3 km/h (3 Bft) 93,62 %
15.01.2023 08:40 6,4 C 5,6 C 2,8 C 87 % 1000,5 hPa 0,0 l/m 0 min 0 min 0 W/m 19,3 km/h (3 Bft) 97,87 %
15.01.2023 08:42 6,3 C 5,6 C 2,8 C 87 % 1000,6 hPa 0,0 l/m 0 min 0 min 0 W/m 25,7 km/h (4 Bft) 100,00 %
15.01.2023 08:44 6,3 C 5,6 C 2,8 C 87 % 1000,5 hPa 0,0 l/m 0 min 0 min 0 W/m 19,3 km/h (3 Bft) 97,87 %
15.01.2023 08:46 6,3 C 5,6 C 2,8 C 87 % 1000,6 hPa 0,0 l/m 0 min 0 min 0 W/m 29,0 km/h (5 Bft) 95,74 %
15.01.2023 08:48 6,3 C 5,6 C 2,8 C 87 % 1000,6 hPa 0,0 l/m 0 min 0 min 5 W/m 29,0 km/h (5 Bft) 97,87 %
15.01.2023 08:50 6,3 C 5,6 C 2,8 C 87 % 1000,7 hPa 0,0 l/m 0 min 0 min 6 W/m 38,6 km/h (5 Bft) 100,00 %
15.01.2023 08:52 6,3 C 5,6 C 2,8 C 87 % 1000,7 hPa 0,0 l/m 0 min 0 min 7 W/m 45,1 km/h (6 Bft) 97,87 %
15.01.2023 08:54 6,3 C 5,6 C 2,8 C 87 % 1000,7 hPa 0,0 l/m 0 min 0 min 8 W/m 25,7 km/h (4 Bft) 100,00 %
15.01.2023 08:56 6,3 C 5,6 C 2,8 C 87 % 1000,7 hPa 0,0 l/m 0 min 0 min 9 W/m 38,6 km/h (5 Bft) 100,00 %
15.01.2023 08:58 6,4 C 5,6 C 2,8 C 87 % 1000,7 hPa 0,0 l/m 0 min 2 min 9 W/m 57,9 km/h (7 Bft) 97,87 %
15.01.2023 09:00 6,4 C 5,6 C 2,8 C 87 % 1000,6 hPa 0,0 l/m 0 min 2 min 11 W/m 35,4 km/h (5 Bft) 100,00 %
15.01.2023 09:02 6,3 C 5,6 C 2,8 C 87 % 1000,6 hPa 0,0 l/m 0 min 0 min 13 W/m 38,6 km/h (5 Bft) 100,00 %
15.01.2023 09:04 6,3 C 5,6 C 2,8 C 87 % 1000,7 hPa 0,0 l/m 0 min 0 min 16 W/m 35,4 km/h (5 Bft) 97,83 %
15.01.2023 09:06 6,3 C 5,6 C 2,8 C 87 % 1000,8 hPa 0,0 l/m 0 min 0 min 16 W/m 35,4 km/h (5 Bft) 100,00 %
15.01.2023 09:08 6,3 C 5,6 C 2,8 C 87 % 1000,7 hPa 0,0 l/m 0 min 0 min 18 W/m 35,4 km/h (5 Bft) 100,00 %
15.01.2023 09:10 6,3 C 5,6 C 2,8 C 86 % 1000,8 hPa 0,0 l/m 0 min 0 min 17 W/m 25,7 km/h (4 Bft) 100,00 %
15.01.2023 09:12 6,3 C 5,6 C 2,8 C 86 % 1000,9 hPa 0,0 l/m 0 min 0 min 16 W/m 32,2 km/h (5 Bft) 100,00 %
15.01.2023 09:14 6,3 C 5,6 C 2,8 C 86 % 1000,9 hPa 0,0 l/m 0 min 0 min 16 W/m 19,3 km/h (3 Bft) 97,87 %
15.01.2023 09:16 6,3 C 5,6 C 2,8 C 86 % 1000,9 hPa 0,0 l/m 0 min 0 min 18 W/m 19,3 km/h (3 Bft) 100,00 %
15.01.2023 09:18 6,2 C 5,6 C 2,8 C 86 % 1001,0 hPa 0,0 l/m 0 min 0 min 19 W/m 29,0 km/h (5 Bft) 100,00 %
15.01.2023 09:20 6,2 C 5,6 C 2,8 C 86 % 1001,0 hPa 0,0 l/m 0 min 0 min 19 W/m 32,2 km/h (5 Bft) 100,00 %
15.01.2023 09:22 6,2 C 5,6 C 2,8 C 86 % 1001,0 hPa 0,0 l/m 0 min 0 min 18 W/m 22,5 km/h (4 Bft) 100,00 %
15.01.2023 09:24 6,2 C 5,6 C 2,8 C 85 % 1001,0 hPa 0,0 l/m 0 min 0 min 19 W/m 22,5 km/h (4 Bft) 100,00 %
15.01.2023 09:26 6,2 C 5,6 C 2,8 C 85 % 1001,2 hPa 0,0 l/m 0 min 0 min 19 W/m 29,0 km/h (5 Bft) 100,00 %
15.01.2023 09:28 6,2 C 5,6 C 2,8 C 85 % 1001,1 hPa 0,0 l/m 0 min 0 min 19 W/m 25,7 km/h (4 Bft) 100,00 %
15.01.2023 09:30 6,2 C 5,6 C 2,8 C 85 % 1001,2 hPa 0,0 l/m 0 min 0 min 19 W/m 22,5 km/h (4 Bft) 97,83 %
15.01.2023 09:32 6,1 C 5,6 C 2,8 C 85 % 1001,2 hPa 0,0 l/m 0 min 0 min 21 W/m 22,5 km/h (4 Bft) 97,87 %
15.01.2023 09:34 6,1 C 5,6 C 2,8 C 85 % 1001,3 hPa 0,0 l/m 0 min 0 min 21 W/m 41,8 km/h (6 Bft) 100,00 %
15.01.2023 09:36 6,1 C 5,6 C 2,8 C 84 % 1001,2 hPa 0,0 l/m 0 min 0 min 19 W/m 19,3 km/h (3 Bft) 100,00 %
15.01.2023 09:38 6,1 C 5,6 C 2,8 C 85 % 1001,3 hPa 0,0 l/m 0 min 0 min 19 W/m 29,0 km/h (5 Bft) 100,00 %
15.01.2023 09:40 6,1 C 5,6 C 2,8 C 84 % 1001,2 hPa 0,0 l/m 0 min 0 min 17 W/m 25,7 km/h (4 Bft) 100,00 %
15.01.2023 09:42 6,1 C 5,6 C 2,8 C 84 % 1001,3 hPa 0,0 l/m 0 min 0 min 15 W/m 22,5 km/h (4 Bft) 97,87 %
15.01.2023 09:44 6,0 C 5,6 C 2,2 C 84 % 1001,2 hPa 0,0 l/m 0 min 0 min 14 W/m 25,7 km/h (4 Bft) 100,00 %
15.01.2023 09:46 6,0 C 5,6 C 2,2 C 84 % 1001,2 hPa 0,0 l/m 0 min 0 min 14 W/m 22,5 km/h (4 Bft) 100,00 %
15.01.2023 09:48 5,9 C 5,0 C 2,2 C 84 % 1001,2 hPa 0,0 l/m 0 min 0 min 14 W/m 25,7 km/h (4 Bft) 100,00 %
15.01.2023 09:50 5,9 C 5,0 C 2,2 C 84 % 1001,2 hPa 0,0 l/m 0 min 0 min 17 W/m 22,5 km/h (4 Bft) 97,87 %
15.01.2023 09:52 5,9 C 5,0 C 2,2 C 84 % 1001,2 hPa 0,0 l/m 0 min 0 min 18 W/m 25,7 km/h (4 Bft) 97,87 %
15.01.2023 09:54 5,9 C 5,0 C 2,2 C 84 % 1001,3 hPa 0,0 l/m 0 min 0 min 17 W/m 25,7 km/h (4 Bft) 100,00 %
15.01.2023 09:56 5,8 C 5,0 C 2,2 C 84 % 1001,2 hPa 0,0 l/m 0 min 0 min 16 W/m 19,3 km/h (3 Bft) 100,00 %
15.01.2023 09:58 5,8 C 5,0 C 2,2 C 84 % 1001,3 hPa 0,0 l/m 0 min 0 min 17 W/m 35,4 km/h (5 Bft) 100,00 %
15.01.2023 10:00 5,8 C 5,0 C 2,2 C 84 % 1001,4 hPa 0,0 l/m 0 min 0 min 18 W/m 22,5 km/h (4 Bft) 100,00 %
15.01.2023 10:02 5,8 C 5,0 C 2,2 C 85 % 1001,3 hPa 0,0 l/m 0 min 0 min 18 W/m 38,6 km/h (5 Bft) 100,00 %
15.01.2023 10:04 5,8 C 5,0 C 2,2 C 85 % 1001,3 hPa 0,0 l/m 0 min 0 min 19 W/m 19,3 km/h (3 Bft) 100,00 %
15.01.2023 10:06 5,8 C 5,0 C 2,2 C 85 % 1001,4 hPa 0,0 l/m 0 min 0 min 19 W/m 29,0 km/h (5 Bft) 97,87 %
15.01.2023 10:08 5,8 C 5,0 C 2,2 C 85 % 1001,4 hPa 0,0 l/m 0 min 0 min 19 W/m 29,0 km/h (5 Bft) 95,74 %
15.01.2023 10:10 5,7 C 5,0 C 2,2 C 85 % 1001,4 hPa 0,0 l/m 0 min 0 min 22 W/m 41,8 km/h (6 Bft) 97,87 %
15.01.2023 10:12 5,7 C 5,0 C 2,2 C 85 % 1001,4 hPa 0,0 l/m 0 min 0 min 27 W/m 38,6 km/h (5 Bft) 95,74 %
15.01.2023 10:14 5,7 C 5,0 C 2,2 C 85 % 1001,3 hPa 0,0 l/m 0 min 0 min 34 W/m 41,8 km/h (6 Bft) 95,65 %
15.01.2023 10:16 5,7 C 5,0 C 2,2 C 86 % 1001,2 hPa 0,0 l/m 0 min 0 min 62 W/m 25,7 km/h (4 Bft) 93,62 %
15.01.2023 10:18 5,7 C 5,0 C 2,2 C 86 % 1001,2 hPa 0,0 l/m 2 min 0 min 146 W/m 35,4 km/h (5 Bft) 93,62 %
15.01.2023 10:20 5,7 C 5,0 C 2,2 C 86 % 1001,3 hPa 0,0 l/m 2 min 0 min 154 W/m 41,8 km/h (6 Bft) 91,49 %
15.01.2023 10:22 5,8 C 5,6 C 2,2 C 86 % 1001,3 hPa 0,0 l/m 2 min 0 min 176 W/m 32,2 km/h (5 Bft) 95,74 %
15.01.2023 10:24 5,8 C 5,6 C 2,2 C 86 % 1001,2 hPa 0,0 l/m 2 min 0 min 180 W/m 29,0 km/h (5 Bft) 95,74 %
15.01.2023 10:26 5,8 C 5,6 C 2,2 C 86 % 1001,3 hPa 0,0 l/m 2 min 0 min 180 W/m 29,0 km/h (5 Bft) 91,49 %
15.01.2023 10:28 5,8 C 5,6 C 2,2 C 86 % 1001,3 hPa 0,0 l/m 2 min 0 min 184 W/m 29,0 km/h (5 Bft) 93,48 %
15.01.2023 10:30 5,8 C 5,6 C 2,2 C 86 % 1001,2 hPa 0,0 l/m 2 min 0 min 182 W/m 38,6 km/h (5 Bft) 93,62 %
15.01.2023 10:32 5,9 C 5,6 C 2,2 C 86 % 1001,2 hPa 0,0 l/m 2 min 0 min 163 W/m 38,6 km/h (5 Bft) 93,62 %
15.01.2023 10:34 5,9 C 5,6 C 2,2 C 86 % 1001,1 hPa 0,0 l/m 2 min 0 min 203 W/m 25,7 km/h (4 Bft) 93,62 %
15.01.2023 10:36 5,9 C 5,6 C 2,2 C 86 % 1001,2 hPa 0,0 l/m 2 min 0 min 204 W/m 22,5 km/h (4 Bft) 91,49 %
15.01.2023 10:38 6,0 C 5,6 C 2,2 C 86 % 1001,1 hPa 0,0 l/m 2 min 0 min 207 W/m 32,2 km/h (5 Bft) 91,49 %
15.01.2023 10:40 6,0 C 5,6 C 2,2 C 86 % 1001,0 hPa 0,0 l/m 2 min 0 min 212 W/m 45,1 km/h (6 Bft) 93,62 %
15.01.2023 10:42 6,1 C 5,6 C 2,8 C 86 % 1001,1 hPa 0,0 l/m 2 min 0 min 215 W/m 35,4 km/h (5 Bft) 91,30 %
15.01.2023 10:44 6,1 C 5,6 C 2,8 C 86 % 1001,2 hPa 0,0 l/m 2 min 0 min 218 W/m 22,5 km/h (4 Bft) 93,62 %
15.01.2023 10:46 6,2 C 5,6 C 2,8 C 86 % 1001,1 hPa 0,0 l/m 2 min 0 min 222 W/m 35,4 km/h (5 Bft) 91,49 %
15.01.2023 10:48 6,2 C 6,1 C 2,8 C 86 % 1001,2 hPa 0,0 l/m 2 min 0 min 226 W/m 38,6 km/h (5 Bft) 95,74 %
15.01.2023 10:50 6,3 C 6,1 C 2,8 C 85 % 1001,2 hPa 0,0 l/m 2 min 0 min 228 W/m 57,9 km/h (7 Bft) 95,74 %
15.01.2023 10:52 6,3 C 6,1 C 2,8 C 85 % 1001,3 hPa 0,0 l/m 2 min 0 min 229 W/m 29,0 km/h (5 Bft) 95,74 %
15.01.2023 10:54 6,4 C 6,1 C 2,8 C 85 % 1001,2 hPa 0,0 l/m 2 min 0 min 237 W/m 45,1 km/h (6 Bft) 93,62 %
15.01.2023 10:56 6,5 C 6,1 C 2,8 C 84 % 1001,2 hPa 0,0 l/m 2 min 0 min 241 W/m 35,4 km/h (5 Bft) 95,65 %
15.01.2023 10:58 6,5 C 6,1 C 2,8 C 84 % 1001,2 hPa 0,0 l/m 2 min 0 min 286 W/m 48,3 km/h (6 Bft) 97,87 %
15.01.2023 11:00 6,6 C 6,7 C 2,8 C 84 % 1001,3 hPa 0,0 l/m 2 min 0 min 298 W/m 25,7 km/h (4 Bft) 95,74 %
15.01.2023 11:02 6,7 C 6,7 C 2,8 C 84 % 1001,3 hPa 0,0 l/m 2 min 0 min 300 W/m 25,7 km/h (4 Bft) 97,87 %
15.01.2023 11:04 6,8 C 6,7 C 3,3 C 83 % 1001,3 hPa 0,0 l/m 2 min 0 min 312 W/m 48,3 km/h (6 Bft) 97,92 %
15.01.2023 11:06 6,8 C 6,7 C 3,3 C 83 % 1001,5 hPa 0,0 l/m 2 min 0 min 217 W/m 54,7 km/h (7 Bft) 95,74 %
15.01.2023 11:08 6,8 C 6,7 C 3,3 C 82 % 1001,4 hPa 0,0 l/m 0 min 0 min 100 W/m 35,4 km/h (5 Bft) 95,74 %
15.01.2023 11:10 6,8 C 6,7 C 3,3 C 81 % 1001,3 hPa 0,0 l/m 0 min 0 min 93 W/m 38,6 km/h (5 Bft) 100,00 %
15.01.2023 11:12 6,8 C 6,7 C 3,3 C 80 % 1001,4 hPa 0,0 l/m 0 min 0 min 92 W/m 45,1 km/h (6 Bft) 97,83 %
15.01.2023 11:14 6,8 C 6,7 C 3,3 C 80 % 1001,3 hPa 0,0 l/m 0 min 0 min 120 W/m 29,0 km/h (5 Bft) 95,74 %
15.01.2023 11:16 6,8 C 6,7 C 3,3 C 79 % 1001,3 hPa 0,0 l/m 0 min 0 min 126 W/m 51,5 km/h (7 Bft) 97,87 %
15.01.2023 11:18 6,9 C 6,7 C 3,3 C 79 % 1001,3 hPa 0,0 l/m 0 min 0 min 121 W/m 45,1 km/h (6 Bft) 97,87 %
15.01.2023 11:20 6,9 C 6,7 C 3,3 C 79 % 1001,4 hPa 0,0 l/m 0 min 0 min 148 W/m 29,0 km/h (5 Bft) 97,87 %
15.01.2023 11:22 6,9 C 6,7 C 3,3 C 79 % 1001,5 hPa 0,0 l/m 0 min 0 min 124 W/m 38,6 km/h (5 Bft) 95,74 %
15.01.2023 11:24 6,9 C 6,7 C 3,3 C 79 % 1001,5 hPa 0,0 l/m 0 min 0 min 64 W/m 38,6 km/h (5 Bft) 97,83 %
15.01.2023 11:26 6,9 C 6,7 C 3,3 C 79 % 1001,6 hPa 0,0 l/m 0 min 0 min 70 W/m 38,6 km/h (5 Bft) 95,74 %
15.01.2023 11:28 6,9 C 6,7 C 3,3 C 80 % 1001,5 hPa 0,0 l/m 0 min 0 min 85 W/m 61,2 km/h (7 Bft) 95,74 %
15.01.2023 11:30 6,9 C 6,7 C 3,3 C 80 % 1001,7 hPa 0,0 l/m 0 min 0 min 64 W/m 32,2 km/h (5 Bft) 97,87 %
15.01.2023 11:32 6,8 C 6,7 C 3,3 C 80 % 1001,6 hPa 0,0 l/m 0 min 0 min 81 W/m 35,4 km/h (5 Bft) 95,74 %
15.01.2023 11:34 6,8 C 6,7 C 3,3 C 80 % 1001,4 hPa 0,0 l/m 0 min 0 min 116 W/m 51,5 km/h (7 Bft) 97,87 %
15.01.2023 11:36 6,8 C 6,7 C 3,3 C 80 % 1001,4 hPa 0,0 l/m 0 min 0 min 112 W/m 35,4 km/h (5 Bft) 97,87 %
15.01.2023 11:38 6,9 C 6,7 C 3,3 C 80 % 1001,4 hPa 0,0 l/m 0 min 0 min 112 W/m 29,0 km/h (5 Bft) 97,83 %
15.01.2023 11:40 6,9 C 6,7 C 3,3 C 80 % 1001,4 hPa 0,0 l/m 0 min 0 min 114 W/m 32,2 km/h (5 Bft) 97,87 %
15.01.2023 11:42 6,9 C 7,2 C 3,3 C 80 % 1001,4 hPa 0,0 l/m 2 min 0 min 190 W/m 48,3 km/h (6 Bft) 95,74 %
15.01.2023 11:44 6,9 C 6,7 C 3,3 C 80 % 1001,4 hPa 0,0 l/m 0 min 0 min 130 W/m 41,8 km/h (6 Bft) 95,74 %
15.01.2023 11:46 6,9 C 6,7 C 3,3 C 80 % 1001,5 hPa 0,0 l/m 0 min 0 min 44 W/m 29,0 km/h (5 Bft) 97,87 %
15.01.2023 11:48 6,9 C 6,7 C 3,3 C 80 % 1001,5 hPa 0,0 l/m 0 min 0 min 73 W/m 41,8 km/h (6 Bft) 95,74 %
15.01.2023 11:50 6,9 C 6,7 C 3,3 C 80 % 1001,5 hPa 0,0 l/m 0 min 0 min 119 W/m 35,4 km/h (5 Bft) 97,87 %
15.01.2023 11:52 6,9 C 6,7 C 3,3 C 80 % 1001,6 hPa 0,0 l/m 0 min 0 min 137 W/m 29,0 km/h (5 Bft) 97,83 %
15.01.2023 11:54 6,9 C 6,7 C 3,3 C 81 % 1001,7 hPa 0,0 l/m 0 min 0 min 144 W/m 25,7 km/h (4 Bft) 100,00 %
15.01.2023 11:56 6,9 C 7,2 C 3,3 C 80 % 1001,8 hPa 0,0 l/m 0 min 0 min 149 W/m 41,8 km/h (6 Bft) 97,87 %
15.01.2023 11:58 6,9 C 7,2 C 3,3 C 80 % 1001,5 hPa 0,0 l/m 0 min 0 min 137 W/m 54,7 km/h (7 Bft) 100,00 %
15.01.2023 12:00 7,0 C 7,2 C 3,3 C 79 % 1001,5 hPa 0,0 l/m 0 min 0 min 135 W/m 35,4 km/h (5 Bft) 100,00 %
15.01.2023 12:02 7,0 C 7,2 C 3,3 C 80 % 1001,6 hPa 0,0 l/m 0 min 0 min 146 W/m 35,4 km/h (5 Bft) 100,00 %
15.01.2023 12:04 7,1 C 7,2 C 3,3 C 79 % 1001,6 hPa 0,0 l/m 2 min 0 min 170 W/m 54,7 km/h (7 Bft) 100,00 %
15.01.2023 12:07 7,1 C 7,2 C 3,3 C 79 % 1001,6 hPa 0,0 l/m 0 min 0 min 141 W/m 41,8 km/h (6 Bft) 100,00 %
15.01.2023 12:08 7,1 C 7,2 C 3,3 C 79 % 1001,6 hPa 0,0 l/m 0 min 0 min 144 W/m 19,3 km/h (3 Bft) 95,65 %
15.01.2023 12:10 7,2 C 7,2 C 3,3 C 79 % 1001,6 hPa 0,0 l/m 0 min 0 min 114 W/m 67,6 km/h (8 Bft) 100,00 %
15.01.2023 12:12 7,2 C 6,7 C 3,3 C 79 % 1001,6 hPa 0,0 l/m 0 min 0 min 110 W/m 38,6 km/h (5 Bft) 100,00 %
15.01.2023 12:14 7,2 C 7,2 C 3,3 C 79 % 1001,8 hPa 0,0 l/m 0 min 0 min 133 W/m 45,1 km/h (6 Bft) 100,00 %
15.01.2023 12:16 7,2 C 7,8 C 3,3 C 79 % 1001,7 hPa 0,0 l/m 2 min 0 min 230 W/m 35,4 km/h (5 Bft) 100,00 %
15.01.2023 12:18 7,2 C 7,2 C 3,3 C 78 % 1001,6 hPa 0,0 l/m 2 min 0 min 232 W/m 38,6 km/h (5 Bft) 100,00 %
15.01.2023 12:20 7,2 C 7,2 C 3,3 C 78 % 1001,7 hPa 0,0 l/m 0 min 0 min 121 W/m 35,4 km/h (5 Bft) 98,00 %
15.01.2023 12:22 7,2 C 7,2 C 3,3 C 78 % 1001,7 hPa 0,0 l/m 0 min 0 min 109 W/m 51,5 km/h (7 Bft) 95,74 %
15.01.2023 12:24 7,2 C 7,2 C 3,3 C 78 % 1001,7 hPa 0,0 l/m 0 min 0 min 110 W/m 38,6 km/h (5 Bft) 97,87 %
15.01.2023 12:26 7,2 C 6,7 C 3,3 C 78 % 1001,6 hPa 0,0 l/m 0 min 0 min 97 W/m 25,7 km/h (4 Bft) 97,87 %
15.01.2023 12:28 7,2 C 6,7 C 3,3 C 78 % 1001,7 hPa 0,0 l/m 0 min 0 min 98 W/m 41,8 km/h (6 Bft) 95,74 %
15.01.2023 12:30 7,2 C 6,7 C 3,3 C 79 % 1001,7 hPa 0,0 l/m 0 min 0 min 68 W/m 29,0 km/h (5 Bft) 97,83 %
15.01.2023 12:32 7,1 C 6,7 C 3,3 C 79 % 1001,5 hPa 0,0 l/m 0 min 0 min 65 W/m 48,3 km/h (6 Bft) 97,87 %
15.01.2023 12:34 7,1 C 6,7 C 3,3 C 79 % 1001,6 hPa 0,0 l/m 0 min 0 min 73 W/m 54,7 km/h (7 Bft) 97,87 %
15.01.2023 12:36 7,1 C 6,7 C 3,3 C 79 % 1001,7 hPa 0,0 l/m 0 min 0 min 89 W/m 32,2 km/h (5 Bft) 97,87 %
15.01.2023 12:38 7,0 C 6,7 C 3,3 C 79 % 1001,6 hPa 0,0 l/m 0 min 0 min 109 W/m 64,4 km/h (8 Bft) 95,74 %
15.01.2023 12:40 7,0 C 6,7 C 3,3 C 79 % 1001,5 hPa 0,0 l/m 0 min 0 min 101 W/m 35,4 km/h (5 Bft) 95,74 %
15.01.2023 12:42 7,0 C 6,7 C 3,3 C 79 % 1001,6 hPa 0,0 l/m 0 min 0 min 96 W/m 29,0 km/h (5 Bft) 95,74 %
15.01.2023 12:44 7,0 C 6,7 C 3,3 C 79 % 1001,6 hPa 0,0 l/m 0 min 0 min 115 W/m 45,1 km/h (6 Bft) 93,48 %
15.01.2023 12:46 7,1 C 7,2 C 3,3 C 79 % 1001,7 hPa 0,0 l/m 0 min 0 min 143 W/m 32,2 km/h (5 Bft) 93,62 %
15.01.2023 12:48 7,1 C 7,2 C 3,3 C 79 % 1001,6 hPa 0,0 l/m 0 min 0 min 152 W/m 32,2 km/h (5 Bft) 95,74 %
15.01.2023 12:50 7,1 C 7,2 C 3,3 C 79 % 1001,6 hPa 0,0 l/m 0 min 0 min 129 W/m 22,5 km/h (4 Bft) 93,62 %
15.01.2023 12:52 7,1 C 7,2 C 3,3 C 79 % 1001,6 hPa 0,0 l/m 0 min 0 min 164 W/m 25,7 km/h (4 Bft) 93,62 %
15.01.2023 12:54 7,1 C 7,2 C 3,3 C 78 % 1001,5 hPa 0,0 l/m 0 min 0 min 129 W/m 51,5 km/h (7 Bft) 95,74 %
15.01.2023 12:56 7,1 C 7,2 C 3,3 C 79 % 1001,5 hPa 0,0 l/m 0 min 0 min 114 W/m 25,7 km/h (4 Bft) 95,65 %
15.01.2023 12:58 7,1 C 6,7 C 3,3 C 79 % 1001,6 hPa 0,0 l/m 0 min 0 min 114 W/m 48,3 km/h (6 Bft) 95,74 %
15.01.2023 13:00 7,1 C 6,7 C 3,3 C 79 % 1001,6 hPa 0,0 l/m 0 min 0 min 108 W/m 32,2 km/h (5 Bft) 95,74 %
15.01.2023 13:02 7,1 C 6,7 C 3,3 C 79 % 1001,6 hPa 0,0 l/m 0 min 0 min 94 W/m 48,3 km/h (6 Bft) 93,62 %
15.01.2023 13:04 7,1 C 6,7 C 3,3 C 79 % 1001,6 hPa 0,0 l/m 0 min 0 min 115 W/m 22,5 km/h (4 Bft) 93,62 %
15.01.2023 13:06 7,1 C 6,7 C 3,3 C 79 % 1001,7 hPa 0,0 l/m 0 min 0 min 88 W/m 35,4 km/h (5 Bft) 97,87 %
15.01.2023 13:08 7,1 C 6,7 C 3,3 C 79 % 1001,7 hPa 0,0 l/m 0 min 0 min 101 W/m 41,8 km/h (6 Bft) 95,74 %
15.01.2023 13:10 7,1 C 6,7 C 3,3 C 79 % 1001,6 hPa 0,0 l/m 0 min 0 min 107 W/m 41,8 km/h (6 Bft) 97,83 %
15.01.2023 13:12 7,1 C 6,7 C 3,3 C 79 % 1001,7 hPa 0,0 l/m 0 min 0 min 120 W/m 32,2 km/h (5 Bft) 100,00 %
15.01.2023 13:14 7,1 C 6,7 C 3,3 C 79 % 1001,7 hPa 0,0 l/m 0 min 0 min 118 W/m 35,4 km/h (5 Bft) 100,00 %
15.01.2023 13:16 7,1 C 6,7 C 3,3 C 79 % 1001,7 hPa 0,0 l/m 0 min 0 min 113 W/m 45,1 km/h (6 Bft) 100,00 %
15.01.2023 13:18 7,1 C 7,2 C 3,3 C 79 % 1001,6 hPa 0,0 l/m 0 min 0 min 145 W/m 22,5 km/h (4 Bft) 100,00 %
15.01.2023 13:20 7,1 C 7,2 C 3,3 C 79 % 1001,6 hPa 0,0 l/m 0 min 0 min 165 W/m 25,7 km/h (4 Bft) 97,87 %
15.01.2023 13:22 7,1 C 7,2 C 3,3 C 79 % 1001,6 hPa 0,0 l/m 2 min 0 min 178 W/m 29,0 km/h (5 Bft) 100,00 %
15.01.2023 13:24 7,1 C 7,2 C 3,3 C 78 % 1001,6 hPa 0,0 l/m 0 min 0 min 99 W/m 32,2 km/h (5 Bft) 100,00 %
15.01.2023 13:26 7,1 C 7,2 C 3,3 C 78 % 1001,4 hPa 0,0 l/m 0 min 0 min 135 W/m 32,2 km/h (5 Bft) 100,00 %
15.01.2023 13:28 7,1 C 8,3 C 3,3 C 78 % 1001,6 hPa 0,0 l/m 0 min 0 min 130 W/m 48,3 km/h (6 Bft) 100,00 %
15.01.2023 13:30 7,2 C 8,9 C 3,3 C 78 % 1001,6 hPa 0,0 l/m 0 min 0 min 128 W/m 41,8 km/h (6 Bft) 100,00 %
15.01.2023 13:32 7,2 C 8,3 C 3,3 C 78 % 1001,5 hPa 0,0 l/m 0 min 0 min 128 W/m 38,6 km/h (5 Bft) 100,00 %
15.01.2023 13:34 7,2 C 7,2 C 3,3 C 78 % 1001,6 hPa 0,0 l/m 0 min 0 min 69 W/m 35,4 km/h (5 Bft) 100,00 %
15.01.2023 13:36 7,2 C 7,2 C 3,3 C 77 % 1001,4 hPa 0,0 l/m 0 min 0 min 62 W/m 48,3 km/h (6 Bft) 100,00 %
15.01.2023 13:38 7,2 C 7,8 C 3,3 C 77 % 1001,4 hPa 0,0 l/m 0 min 0 min 97 W/m 29,0 km/h (5 Bft) 100,00 %
15.01.2023 13:40 7,2 C 7,8 C 3,3 C 78 % 1001,5 hPa 0,0 l/m 0 min 0 min 132 W/m 25,7 km/h (4 Bft) 100,00 %
15.01.2023 13:42 7,2 C 7,8 C 3,3 C 78 % 1001,4 hPa 0,0 l/m 0 min 0 min 146 W/m 32,2 km/h (5 Bft) 97,87 %
15.01.2023 13:44 7,2 C 7,2 C 3,3 C 78 % 1001,4 hPa 0,0 l/m 0 min 0 min 112 W/m 29,0 km/h (5 Bft) 95,74 %
15.01.2023 13:46 7,2 C 7,2 C 3,3 C 78 % 1001,4 hPa 0,0 l/m 0 min 0 min 117 W/m 29,0 km/h (5 Bft) 100,00 %
15.01.2023 13:48 7,2 C 7,2 C 3,3 C 78 % 1001,4 hPa 0,0 l/m 0 min 0 min 134 W/m 16,1 km/h (3 Bft) 100,00 %
15.01.2023 13:50 7,2 C 7,2 C 3,3 C 78 % 1001,5 hPa 0,0 l/m 0 min 0 min 105 W/m 22,5 km/h (4 Bft) 97,83 %
15.01.2023 13:52 7,2 C 7,2 C 3,3 C 78 % 1001,5 hPa 0,0 l/m 0 min 0 min 121 W/m 32,2 km/h (5 Bft) 97,87 %
15.01.2023 13:54 7,2 C 7,8 C 3,3 C 79 % 1001,5 hPa 0,0 l/m 0 min 0 min 106 W/m 16,1 km/h (3 Bft) 95,74 %
15.01.2023 13:56 7,2 C 7,2 C 3,3 C 79 % 1001,5 hPa 0,0 l/m 0 min 0 min 97 W/m 22,5 km/h (4 Bft) 100,00 %
15.01.2023 13:58 7,2 C 7,2 C 3,3 C 79 % 1001,5 hPa 0,0 l/m 0 min 0 min 79 W/m 25,7 km/h (4 Bft) 97,87 %
15.01.2023 14:00 7,2 C 7,2 C 3,3 C 79 % 1001,5 hPa 0,0 l/m 0 min 0 min 70 W/m 45,1 km/h (6 Bft) 97,87 %
15.01.2023 14:02 7,2 C 6,7 C 3,3 C 78 % 1001,4 hPa 0,0 l/m 0 min 0 min 57 W/m 29,0 km/h (5 Bft) 95,74 %
15.01.2023 14:04 7,2 C 6,7 C 3,3 C 78 % 1001,5 hPa 0,0 l/m 0 min 0 min 65 W/m 25,7 km/h (4 Bft) 97,83 %
15.01.2023 14:06 7,2 C 6,7 C 3,3 C 79 % 1001,5 hPa 0,0 l/m 0 min 0 min 49 W/m 32,2 km/h (5 Bft) 97,87 %
15.01.2023 14:08 7,2 C 6,7 C 3,3 C 79 % 1001,4 hPa 0,0 l/m 0 min 0 min 42 W/m 45,1 km/h (6 Bft) 97,87 %
15.01.2023 14:10 7,2 C 6,7 C 3,3 C 79 % 1001,4 hPa 0,0 l/m 0 min 0 min 48 W/m 25,7 km/h (4 Bft) 95,74 %
15.01.2023 14:12 7,1 C 6,7 C 3,3 C 79 % 1001,5 hPa 0,0 l/m 0 min 0 min 51 W/m 32,2 km/h (5 Bft) 97,87 %
15.01.2023 14:14 7,1 C 6,7 C 3,3 C 79 % 1001,4 hPa 0,0 l/m 0 min 0 min 55 W/m 25,7 km/h (4 Bft) 97,87 %
15.01.2023 14:16 7,1 C 6,7 C 3,3 C 79 % 1001,5 hPa 0,0 l/m 0 min 0 min 51 W/m 51,5 km/h (7 Bft) 97,83 %
15.01.2023 14:18 7,1 C 6,7 C 3,3 C 78 % 1001,4 hPa 0,0 l/m 0 min 0 min 48 W/m 29,0 km/h (5 Bft) 97,87 %
15.01.2023 14:20 7,1 C 6,7 C 3,3 C 79 % 1001,4 hPa 0,0 l/m 0 min 0 min 77 W/m 22,5 km/h (4 Bft) 95,74 %
15.01.2023 14:22 7,1 C 6,7 C 3,3 C 79 % 1001,4 hPa 0,0 l/m 0 min 0 min 78 W/m 19,3 km/h (3 Bft) 97,87 %
15.01.2023 14:24 7,1 C 6,7 C 3,3 C 79 % 1001,5 hPa 0,0 l/m 0 min 0 min 63 W/m 29,0 km/h (5 Bft) 95,74 %
15.01.2023 14:26 7,1 C 6,7 C 3,3 C 79 % 1001,5 hPa 0,0 l/m 0 min 0 min 63 W/m 19,3 km/h (3 Bft) 95,74 %
15.01.2023 14:28 7,1 C 6,7 C 3,3 C 79 % 1001,4 hPa 0,0 l/m 0 min 0 min 65 W/m 19,3 km/h (3 Bft) 97,87 %
15.01.2023 14:30 7,1 C 6,7 C 3,3 C 79 % 1001,5 hPa 0,0 l/m 0 min 0 min 53 W/m 25,7 km/h (4 Bft) 97,83 %
15.01.2023 14:32 7,1 C 6,7 C 3,3 C 79 % 1001,5 hPa 0,0 l/m 0 min 0 min 61 W/m 25,7 km/h (4 Bft) 95,74 %
15.01.2023 14:34 7,1 C 6,7 C 3,3 C 79 % 1001,6 hPa 0,0 l/m 0 min 0 min 70 W/m 32,2 km/h (5 Bft) 97,87 %
15.01.2023 14:36 7,2 C 6,7 C 3,3 C 78 % 1001,3 hPa 0,0 l/m 0 min 0 min 69 W/m 32,2 km/h (5 Bft) 97,87 %
15.01.2023 14:38 7,2 C 6,7 C 3,3 C 78 % 1001,5 hPa 0,0 l/m 0 min 0 min 64 W/m 41,8 km/h (6 Bft) 95,74 %
15.01.2023 14:40 7,2 C 6,7 C 3,3 C 78 % 1001,4 hPa 0,0 l/m 0 min 0 min 67 W/m 25,7 km/h (4 Bft) 95,74 %
15.01.2023 14:42 7,2 C 6,7 C 3,3 C 78 % 1001,4 hPa 0,0 l/m 0 min 0 min 63 W/m 35,4 km/h (5 Bft) 93,62 %
15.01.2023 14:44 7,2 C 6,7 C 3,3 C 78 % 1001,4 hPa 0,0 l/m 0 min 0 min 58 W/m 48,3 km/h (6 Bft) 97,14 %
15.01.2023 14:46 7,2 C 6,7 C 3,3 C 78 % 1001,4 hPa 0,0 l/m 0 min 0 min 73 W/m 25,7 km/h (4 Bft) 93,62 %
15.01.2023 14:48 7,2 C 6,7 C 3,3 C 77 % 1001,5 hPa 0,0 l/m 0 min 0 min 69 W/m 29,0 km/h (5 Bft) 98,18 %
15.01.2023 14:50 7,2 C 6,7 C 3,3 C 77 % 1001,5 hPa 0,0 l/m 0 min 0 min 60 W/m 25,7 km/h (4 Bft) 97,87 %
15.01.2023 14:52 7,2 C 6,7 C 3,3 C 77 % 1001,5 hPa 0,0 l/m 0 min 0 min 52 W/m 22,5 km/h (4 Bft) 100,00 %
15.01.2023 14:54 7,2 C 6,7 C 3,3 C 77 % 1001,5 hPa 0,0 l/m 0 min 0 min 51 W/m 41,8 km/h (6 Bft) 97,87 %
15.01.2023 14:56 7,2 C 6,7 C 3,3 C 77 % 1001,5 hPa 0,0 l/m 0 min 0 min 56 W/m 38,6 km/h (5 Bft) 97,87 %
15.01.2023 14:58 7,2 C 6,7 C 3,3 C 77 % 1001,5 hPa 0,0 l/m 0 min 0 min 58 W/m 29,0 km/h (5 Bft) 97,87 %
15.01.2023 15:00 7,2 C 6,7 C 3,3 C 77 % 1001,4 hPa 0,0 l/m 0 min 0 min 61 W/m 38,6 km/h (5 Bft) 97,83 %
15.01.2023 15:02 7,2 C 6,7 C 3,3 C 77 % 1001,4 hPa 0,0 l/m 0 min 0 min 43 W/m 41,8 km/h (6 Bft) 97,87 %
15.01.2023 15:04 7,2 C 6,7 C 3,3 C 77 % 1001,5 hPa 0,0 l/m 0 min 0 min 32 W/m 22,5 km/h (4 Bft) 97,87 %
15.01.2023 15:06 7,2 C 6,7 C 3,3 C 77 % 1001,4 hPa 0,0 l/m 0 min 0 min 37 W/m 25,7 km/h (4 Bft) 96,61 %
15.01.2023 15:08 7,2 C 6,7 C 3,3 C 77 % 1001,5 hPa 0,0 l/m 0 min 0 min 36 W/m 41,8 km/h (6 Bft) 94,29 %
15.01.2023 15:10 7,2 C 6,7 C 3,3 C 77 % 1001,4 hPa 0,0 l/m 0 min 0 min 43 W/m 35,4 km/h (5 Bft) 95,74 %
15.01.2023 15:12 7,2 C 6,7 C 3,3 C 77 % 1001,5 hPa 0,0 l/m 0 min 0 min 80 W/m 48,3 km/h (6 Bft) 95,65 %
15.01.2023 15:14 7,2 C 7,2 C 3,3 C 78 % 1001,5 hPa 0,0 l/m 0 min 0 min 102 W/m 25,7 km/h (4 Bft) 95,74 %
15.01.2023 15:16 7,2 C 7,2 C 3,3 C 77 % 1001,5 hPa 0,0 l/m 2 min 0 min 128 W/m 25,7 km/h (4 Bft) 97,87 %
15.01.2023 15:18 7,3 C 7,2 C 3,3 C 78 % 1001,5 hPa 0,0 l/m 2 min 0 min 123 W/m 32,2 km/h (5 Bft) 97,87 %
15.01.2023 15:20 7,3 C 7,2 C 3,3 C 77 % 1001,6 hPa 0,0 l/m 2 min 0 min 126 W/m 38,6 km/h (5 Bft) 100,00 %
15.01.2023 15:22 7,3 C 7,2 C 3,3 C 77 % 1001,6 hPa 0,0 l/m 2 min 0 min 139 W/m 41,8 km/h (6 Bft) 95,74 %
15.01.2023 15:24 7,3 C 7,2 C 3,3 C 77 % 1001,6 hPa 0,0 l/m 2 min 0 min 113 W/m 25,7 km/h (4 Bft) 97,87 %
15.01.2023 15:26 7,3 C 7,2 C 3,3 C 77 % 1001,6 hPa 0,0 l/m 0 min 0 min 84 W/m 29,0 km/h (5 Bft) 97,83 %
15.01.2023 15:28 7,3 C 7,2 C 3,3 C 77 % 1001,5 hPa 0,0 l/m 0 min 0 min 55 W/m 29,0 km/h (5 Bft) 97,87 %
15.01.2023 15:30 7,3 C 6,7 C 3,3 C 77 % 1001,4 hPa 0,0 l/m 0 min 0 min 45 W/m 35,4 km/h (5 Bft) 97,87 %
15.01.2023 15:32 7,3 C 6,7 C 3,3 C 76 % 1001,6 hPa 0,0 l/m 0 min 0 min 49 W/m 38,6 km/h (5 Bft) 97,87 %
15.01.2023 15:34 7,3 C 6,7 C 3,3 C 76 % 1001,6 hPa 0,0 l/m 0 min 0 min 45 W/m 25,7 km/h (4 Bft) 97,87 %
15.01.2023 15:36 7,3 C 6,7 C 3,3 C 77 % 1001,5 hPa 0,0 l/m 0 min 0 min 47 W/m 45,1 km/h (6 Bft) 97,87 %
15.01.2023 15:38 7,2 C 6,7 C 3,3 C 77 % 1001,6 hPa 0,0 l/m 0 min 0 min 72 W/m 19,3 km/h (3 Bft) 95,92 %
15.01.2023 15:40 7,2 C 6,7 C 3,3 C 77 % 1001,5 hPa 0,0 l/m 0 min 0 min 60 W/m 35,4 km/h (5 Bft) 97,87 %
15.01.2023 15:42 7,2 C 6,7 C 3,3 C 77 % 1001,7 hPa 0,0 l/m 0 min 0 min 51 W/m 25,7 km/h (4 Bft) 97,87 %
15.01.2023 15:44 7,2 C 6,7 C 3,3 C 77 % 1001,6 hPa 0,0 l/m 0 min 0 min 42 W/m 32,2 km/h (5 Bft) 95,74 %
15.01.2023 15:46 7,3 C 6,7 C 3,3 C 77 % 1001,7 hPa 0,0 l/m 0 min 0 min 40 W/m 32,2 km/h (5 Bft) 95,74 %
15.01.2023 15:48 7,2 C 6,7 C 3,3 C 77 % 1001,8 hPa 0,0 l/m 0 min 0 min 39 W/m 41,8 km/h (6 Bft) 97,87 %
15.01.2023 15:50 7,2 C 6,7 C 3,3 C 77 % 1001,6 hPa 0,0 l/m 0 min 0 min 39 W/m 48,3 km/h (6 Bft) 97,87 %
15.01.2023 15:52 7,2 C 6,7 C 3,3 C 77 % 1001,7 hPa 0,0 l/m 0 min 0 min 34 W/m 29,0 km/h (5 Bft) 97,83 %
15.01.2023 15:54 7,2 C 6,7 C 3,3 C 77 % 1001,7 hPa 0,0 l/m 0 min 0 min 36 W/m 29,0 km/h (5 Bft) 100,00 %
15.01.2023 15:56 7,2 C 6,7 C 3,3 C 77 % 1001,8 hPa 0,0 l/m 0 min 0 min 37 W/m 32,2 km/h (5 Bft) 100,00 %
15.01.2023 15:58 7,2 C 6,7 C 3,3 C 77 % 1001,8 hPa 0,0 l/m 0 min 0 min 39 W/m 38,6 km/h (5 Bft) 100,00 %
15.01.2023 16:00 7,2 C 6,7 C 3,3 C 77 % 1001,7 hPa 0,0 l/m 0 min 0 min 34 W/m 19,3 km/h (3 Bft) 97,87 %
15.01.2023 16:02 7,2 C 6,7 C 3,3 C 77 % 1001,8 hPa 0,0 l/m 0 min 0 min 31 W/m 38,6 km/h (5 Bft) 100,00 %
15.01.2023 16:04 7,2 C 6,7 C 3,3 C 77 % 1001,7 hPa 0,0 l/m 0 min 0 min 28 W/m 41,8 km/h (6 Bft) 100,00 %
15.01.2023 16:06 7,2 C 6,7 C 3,3 C 77 % 1001,8 hPa 0,0 l/m 0 min 0 min 28 W/m 25,7 km/h (4 Bft) 97,87 %
15.01.2023 16:08 7,2 C 6,7 C 3,3 C 77 % 1001,8 hPa 0,0 l/m 0 min 0 min 32 W/m 32,2 km/h (5 Bft) 100,00 %
15.01.2023 16:10 7,2 C 6,7 C 2,8 C 77 % 1001,8 hPa 0,0 l/m 0 min 0 min 36 W/m 41,8 km/h (6 Bft) 97,14 %
15.01.2023 16:12 7,2 C 6,7 C 2,8 C 77 % 1001,8 hPa 0,0 l/m 0 min 0 min 38 W/m 35,4 km/h (5 Bft) 97,87 %
15.01.2023 16:14 7,2 C 6,7 C 2,8 C 77 % 1001,8 hPa 0,0 l/m 0 min 0 min 23 W/m 29,0 km/h (5 Bft) 100,00 %
15.01.2023 16:16 7,1 C 6,7 C 2,8 C 77 % 1001,8 hPa 0,0 l/m 0 min 0 min 22 W/m 45,1 km/h (6 Bft) 97,87 %
15.01.2023 16:18 7,1 C 6,7 C 2,8 C 77 % 1001,8 hPa 0,0 l/m 0 min 0 min 18 W/m 32,2 km/h (5 Bft) 97,87 %
15.01.2023 16:20 7,1 C 6,7 C 2,8 C 77 % 1001,8 hPa 0,0 l/m 0 min 0 min 13 W/m 38,6 km/h (5 Bft) 100,00 %
15.01.2023 16:22 7,1 C 6,7 C 2,8 C 77 % 1001,9 hPa 0,0 l/m 0 min 0 min 16 W/m 38,6 km/h (5 Bft) 100,00 %
15.01.2023 16:24 7,1 C 6,7 C 2,8 C 77 % 1001,8 hPa 0,0 l/m 0 min 0 min 17 W/m 32,2 km/h (5 Bft) 97,87 %
15.01.2023 16:26 7,1 C 6,7 C 2,8 C 77 % 1001,8 hPa 0,0 l/m 0 min 0 min 19 W/m 38,6 km/h (5 Bft) 100,00 %
15.01.2023 16:28 7,1 C 6,1 C 2,8 C 77 % 1001,7 hPa 0,0 l/m 0 min 0 min 12 W/m 29,0 km/h (5 Bft) 95,74 %
15.01.2023 16:30 7,1 C 6,1 C 2,8 C 77 % 1001,9 hPa 0,0 l/m 0 min 0 min 10 W/m 35,4 km/h (5 Bft) 95,74 %
15.01.2023 16:32 7,1 C 6,1 C 2,8 C 78 % 1001,8 hPa 0,0 l/m 0 min 0 min 9 W/m 29,0 km/h (5 Bft) 97,87 %
15.01.2023 16:34 7,0 C 6,1 C 2,8 C 78 % 1001,9 hPa 0,0 l/m 0 min 0 min 9 W/m 32,2 km/h (5 Bft) 93,62 %
15.01.2023 16:36 7,0 C 6,1 C 2,8 C 78 % 1001,9 hPa 0,0 l/m 0 min 0 min 9 W/m 48,3 km/h (6 Bft) 93,48 %
15.01.2023 16:38 7,0 C 6,1 C 2,8 C 78 % 1002,1 hPa 0,0 l/m 0 min 0 min 8 W/m 35,4 km/h (5 Bft) 97,87 %
15.01.2023 16:40 6,9 C 6,1 C 2,8 C 79 % 1002,1 hPa 0,0 l/m 0 min 0 min 7 W/m 32,2 km/h (5 Bft) 95,74 %
15.01.2023 16:42 6,9 C 6,1 C 2,8 C 78 % 1002,0 hPa 0,0 l/m 0 min 0 min 7 W/m 45,1 km/h (6 Bft) 95,74 %
15.01.2023 16:44 6,9 C 6,1 C 2,8 C 78 % 1001,9 hPa 0,0 l/m 0 min 0 min 7 W/m 41,8 km/h (6 Bft) 97,87 %
15.01.2023 16:46 6,8 C 6,1 C 2,8 C 78 % 1002,1 hPa 0,0 l/m 0 min 0 min 5 W/m 38,6 km/h (5 Bft) 95,74 %
15.01.2023 16:48 6,8 C 6,1 C 2,8 C 79 % 1001,9 hPa 0,0 l/m 0 min 0 min 5 W/m 45,1 km/h (6 Bft) 91,30 %
15.01.2023 16:50 6,8 C 6,1 C 2,8 C 79 % 1002,0 hPa 0,0 l/m 0 min 0 min 5 W/m 51,5 km/h (7 Bft) 95,74 %
15.01.2023 16:52 6,8 C 6,1 C 2,8 C 80 % 1002,0 hPa 0,0 l/m 0 min 2 min 3 W/m 45,1 km/h (6 Bft) 95,74 %
15.01.2023 16:54 6,7 C 5,6 C 2,2 C 80 % 1002,1 hPa 0,0 l/m 0 min 2 min 0 W/m 35,4 km/h (5 Bft) 93,62 %
15.01.2023 16:56 6,7 C 5,6 C 2,2 C 81 % 1002,0 hPa 0,0 l/m 0 min 2 min 0 W/m 48,3 km/h (6 Bft) 95,74 %
15.01.2023 16:58 6,7 C 5,6 C 2,2 C 81 % 1002,1 hPa 0,0 l/m 0 min 2 min 0 W/m 25,7 km/h (4 Bft) 95,74 %
15.01.2023 17:00 6,6 C 5,6 C 2,2 C 81 % 1002,1 hPa 0,0 l/m 0 min 2 min 0 W/m 19,3 km/h (3 Bft) 91,49 %
15.01.2023 17:02 6,6 C 5,6 C 2,2 C 81 % 1002,2 hPa 0,0 l/m 0 min 0 min 0 W/m 19,3 km/h (3 Bft) 95,65 %
15.01.2023 17:04 6,6 C 6,1 C 2,2 C 81 % 1002,2 hPa 0,0 l/m 0 min 0 min 0 W/m 35,4 km/h (5 Bft) 68,09 %
15.01.2023 17:06 6,6 C 6,1 C 2,2 C 81 % 1002,2 hPa 0,0 l/m 0 min 0 min 0 W/m 35,4 km/h (5 Bft) 93,22 %
15.01.2023 17:08 6,6 C 6,1 C 2,2 C 81 % 1002,1 hPa 0,0 l/m 0 min 0 min 0 W/m 35,4 km/h (5 Bft) 91,49 %
15.01.2023 17:10 6,7 C 6,1 C 2,8 C 81 % 1002,0 hPa 0,0 l/m 0 min 0 min 0 W/m 41,8 km/h (6 Bft) 91,43 %
15.01.2023 17:12 6,7 C 6,1 C 2,8 C 80 % 1002,2 hPa 0,0 l/m 0 min 0 min 0 W/m 25,7 km/h (4 Bft) 95,74 %
15.01.2023 17:14 6,7 C 6,1 C 2,8 C 80 % 1002,2 hPa 0,0 l/m 0 min 0 min 0 W/m 32,2 km/h (5 Bft) 97,87 %
15.01.2023 17:16 6,7 C 6,1 C 2,8 C 80 % 1002,2 hPa 0,0 l/m 0 min 0 min 0 W/m 25,7 km/h (4 Bft) 97,83 %
15.01.2023 17:18 6,7 C 6,1 C 2,8 C 80 % 1002,2 hPa 0,0 l/m 0 min 0 min 0 W/m 29,0 km/h (5 Bft) 95,74 %
15.01.2023 17:20 6,7 C 6,1 C 2,8 C 80 % 1002,2 hPa 0,0 l/m 0 min 0 min 0 W/m 38,6 km/h (5 Bft) 97,87 %
15.01.2023 17:22 6,7 C 6,1 C 2,8 C 80 % 1002,1 hPa 0,0 l/m 0 min 0 min 0 W/m 22,5 km/h (4 Bft) 98,25 %
15.01.2023 17:24 6,7 C 6,1 C 2,8 C 80 % 1002,1 hPa 0,0 l/m 0 min 0 min 0 W/m 16,1 km/h (3 Bft) 97,87 %
15.01.2023 17:26 6,7 C 6,1 C 2,8 C 80 % 1002,2 hPa 0,0 l/m 0 min 0 min 0 W/m 22,5 km/h (4 Bft) 97,83 %
15.01.2023 17:28 6,7 C 6,1 C 2,8 C 80 % 1002,1 hPa 0,0 l/m 0 min 0 min 0 W/m 35,4 km/h (5 Bft) 97,87 %
15.01.2023 17:30 6,8 C 6,1 C 2,8 C 80 % 1002,1 hPa 0,0 l/m 0 min 0 min 0 W/m 35,4 km/h (5 Bft) 100,00 %
15.01.2023 17:32 6,8 C 6,1 C 2,8 C 80 % 1002,2 hPa 0,0 l/m 0 min 0 min 0 W/m 45,1 km/h (6 Bft) 97,87 %
15.01.2023 17:34 6,7 C 6,1 C 2,8 C 80 % 1002,1 hPa 0,0 l/m 0 min 0 min 0 W/m 38,6 km/h (5 Bft) 100,00 %
15.01.2023 17:36 6,7 C 6,1 C 2,8 C 80 % 1002,3 hPa 0,0 l/m 0 min 0 min 0 W/m 32,2 km/h (5 Bft) 100,00 %
15.01.2023 17:38 6,7 C 6,1 C 2,8 C 80 % 1002,3 hPa 0,0 l/m 0 min 0 min 0 W/m 19,3 km/h (3 Bft) 97,92 %
15.01.2023 17:40 6,7 C 6,1 C 2,2 C 80 % 1002,2 hPa 0,0 l/m 0 min 0 min 0 W/m 16,1 km/h (3 Bft) 100,00 %
15.01.2023 17:42 6,7 C 5,6 C 2,2 C 80 % 1002,2 hPa 0,0 l/m 0 min 0 min 0 W/m 29,0 km/h (5 Bft) 100,00 %
15.01.2023 17:44 6,7 C 5,6 C 2,2 C 80 % 1002,2 hPa 0,0 l/m 0 min 0 min 0 W/m 22,5 km/h (4 Bft) 100,00 %
15.01.2023 17:46 6,7 C 6,1 C 2,2 C 80 % 1002,3 hPa 0,0 l/m 0 min 0 min 0 W/m 25,7 km/h (4 Bft) 100,00 %
15.01.2023 17:48 6,7 C 6,1 C 2,2 C 80 % 1002,3 hPa 0,0 l/m 0 min 0 min 0 W/m 22,5 km/h (4 Bft) 97,87 %
15.01.2023 17:50 6,6 C 6,1 C 2,2 C 80 % 1002,3 hPa 0,0 l/m 0 min 0 min 0 W/m 29,0 km/h (5 Bft) 100,00 %
15.01.2023 17:52 6,7 C 6,1 C 2,2 C 80 % 1002,3 hPa 0,0 l/m 0 min 0 min 0 W/m 25,7 km/h (4 Bft) 100,00 %
15.01.2023 17:54 6,7 C 6,1 C 2,2 C 80 % 1002,3 hPa 0,0 l/m 0 min 0 min 0 W/m 22,5 km/h (4 Bft) 97,83 %
15.01.2023 17:56 6,7 C 6,1 C 2,2 C 80 % 1002,3 hPa 0,0 l/m 0 min 0 min 0 W/m 29,0 km/h (5 Bft) 95,74 %
15.01.2023 17:58 6,6 C 6,1 C 2,2 C 79 % 1002,3 hPa 0,0 l/m 0 min 0 min 0 W/m 29,0 km/h (5 Bft) 100,00 %
15.01.2023 18:00 6,6 C 5,6 C 2,2 C 80 % 1002,3 hPa 0,0 l/m 0 min 0 min 0 W/m 29,0 km/h (5 Bft) 97,87 %
15.01.2023 18:02 6,6 C 6,1 C 2,2 C 80 % 1002,4 hPa 0,0 l/m 0 min 0 min 0 W/m 25,7 km/h (4 Bft) 95,74 %
15.01.2023 18:04 6,6 C 6,1 C 2,2 C 80 % 1002,4 hPa 0,0 l/m 0 min 0 min 0 W/m 32,2 km/h (5 Bft) 95,74 %
15.01.2023 18:07 6,7 C 6,1 C 2,8 C 80 % 1002,4 hPa 0,0 l/m 0 min 0 min 0 W/m 48,3 km/h (6 Bft) 95,83 %
15.01.2023 18:08 6,7 C 6,1 C 2,8 C 80 % 1002,4 hPa 0,0 l/m 0 min 0 min 0 W/m 25,7 km/h (4 Bft) 100,00 %
15.01.2023 18:12 6,8 C 6,1 C 2,8 C 79 % 1002,5 hPa 0,0 l/m 0 min 0 min 0 W/m 29,0 km/h (5 Bft) 98,00 %
15.01.2023 18:14 6,8 C 6,1 C 2,8 C 79 % 1002,5 hPa 0,0 l/m 0 min 0 min 0 W/m 35,4 km/h (5 Bft) 97,87 %
15.01.2023 18:16 6,8 C 6,1 C 2,8 C 80 % 1002,4 hPa 0,0 l/m 0 min 0 min 0 W/m 29,0 km/h (5 Bft) 97,87 %
15.01.2023 18:18 6,8 C 6,1 C 2,8 C 79 % 1002,5 hPa 0,0 l/m 0 min 0 min 0 W/m 22,5 km/h (4 Bft) 95,74 %
15.01.2023 18:20 6,8 C 6,1 C 2,8 C 79 % 1002,4 hPa 0,0 l/m 0 min 0 min 0 W/m 41,8 km/h (6 Bft) 93,62 %
15.01.2023 18:22 6,8 C 6,1 C 2,8 C 80 % 1002,5 hPa 0,0 l/m 0 min 0 min 0 W/m 19,3 km/h (3 Bft) 97,83 %
15.01.2023 18:24 6,8 C 6,1 C 2,8 C 80 % 1002,5 hPa 0,0 l/m 0 min 0 min 0 W/m 25,7 km/h (4 Bft) 95,74 %
15.01.2023 18:26 6,8 C 6,1 C 2,8 C 80 % 1002,5 hPa 0,0 l/m 0 min 0 min 0 W/m 38,6 km/h (5 Bft) 95,74 %
15.01.2023 18:28 6,8 C 6,1 C 2,8 C 80 % 1002,5 hPa 0,0 l/m 0 min 0 min 0 W/m 35,4 km/h (5 Bft) 95,74 %
15.01.2023 18:30 6,8 C 6,1 C 2,8 C 80 % 1002,5 hPa 0,0 l/m 0 min 0 min 0 W/m 29,0 km/h (5 Bft) 93,62 %
15.01.2023 18:32 6,8 C 6,1 C 2,8 C 80 % 1002,4 hPa 0,0 l/m 0 min 0 min 0 W/m 29,0 km/h (5 Bft) 97,87 %
15.01.2023 18:34 6,8 C 6,1 C 2,8 C 80 % 1002,4 hPa 0,0 l/m 0 min 0 min 0 W/m 22,5 km/h (4 Bft) 95,74 %
15.01.2023 18:36 6,8 C 6,1 C 2,8 C 80 % 1002,5 hPa 0,0 l/m 0 min 0 min 0 W/m 22,5 km/h (4 Bft) 95,65 %
15.01.2023 18:38 6,8 C 6,1 C 2,8 C 80 % 1002,3 hPa 0,0 l/m 0 min 0 min 0 W/m 25,7 km/h (4 Bft) 89,36 %
15.01.2023 18:40 6,8 C 6,1 C 2,8 C 80 % 1002,5 hPa 0,0 l/m 0 min 0 min 0 W/m 19,3 km/h (3 Bft) 95,74 %
15.01.2023 18:42 6,8 C 6,1 C 2,8 C 80 % 1002,5 hPa 0,0 l/m 0 min 0 min 0 W/m 29,0 km/h (5 Bft) 95,74 %
15.01.2023 18:44 6,8 C 6,1 C 2,8 C 80 % 1002,5 hPa 0,0 l/m 0 min 0 min 0 W/m 19,3 km/h (3 Bft) 96,00 %
15.01.2023 18:46 6,8 C 6,1 C 2,8 C 80 % 1002,5 hPa 0,0 l/m 0 min 0 min 0 W/m 12,9 km/h (3 Bft) 93,62 %
15.01.2023 18:48 6,8 C 6,1 C 2,8 C 80 % 1002,5 hPa 0,0 l/m 0 min 0 min 0 W/m 29,0 km/h (5 Bft) 95,65 %
15.01.2023 18:50 6,8 C 6,1 C 2,8 C 80 % 1002,6 hPa 0,0 l/m 0 min 0 min 0 W/m 22,5 km/h (4 Bft) 97,87 %
15.01.2023 18:52 6,8 C 6,1 C 2,8 C 80 % 1002,6 hPa 0,0 l/m 0 min 0 min 0 W/m 32,2 km/h (5 Bft) 91,49 %
15.01.2023 18:54 6,8 C 6,1 C 2,8 C 80 % 1002,6 hPa 0,0 l/m 0 min 0 min 0 W/m 19,3 km/h (3 Bft) 95,74 %
15.01.2023 18:56 6,8 C 6,1 C 2,8 C 80 % 1002,6 hPa 0,0 l/m 0 min 0 min 0 W/m 22,5 km/h (4 Bft) 97,87 %
15.01.2023 18:58 6,7 C 6,1 C 2,8 C 80 % 1002,5 hPa 0,0 l/m 0 min 0 min 0 W/m 41,8 km/h (6 Bft) 93,62 %
15.01.2023 19:00 6,7 C 6,1 C 2,8 C 80 % 1002,6 hPa 0,0 l/m 0 min 0 min 0 W/m 25,7 km/h (4 Bft) 86,96 %
15.01.2023 19:02 6,7 C 6,1 C 2,8 C 81 % 1002,6 hPa 0,0 l/m 0 min 0 min 0 W/m 29,0 km/h (5 Bft) 95,74 %
15.01.2023 19:04 6,7 C 6,1 C 2,8 C 81 % 1002,6 hPa 0,0 l/m 0 min 0 min 0 W/m 45,1 km/h (6 Bft) 91,49 %
15.01.2023 19:06 6,7 C 6,1 C 2,8 C 80 % 1002,6 hPa 0,0 l/m 0 min 0 min 0 W/m 29,0 km/h (5 Bft) 95,74 %
15.01.2023 19:08 6,7 C 6,1 C 2,8 C 80 % 1002,6 hPa 0,0 l/m 0 min 0 min 0 W/m 32,2 km/h (5 Bft) 93,62 %
15.01.2023 19:10 6,7 C 6,1 C 2,8 C 81 % 1002,5 hPa 0,0 l/m 0 min 0 min 0 W/m 35,4 km/h (5 Bft) 100,00 %
15.01.2023 19:12 6,7 C 6,1 C 2,8 C 81 % 1002,6 hPa 0,0 l/m 0 min 0 min 0 W/m 29,0 km/h (5 Bft) 97,87 %
15.01.2023 19:14 6,7 C 6,1 C 2,8 C 81 % 1002,6 hPa 0,0 l/m 0 min 0 min 0 W/m 29,0 km/h (5 Bft) 97,83 %
15.01.2023 19:16 6,7 C 6,1 C 2,8 C 81 % 1002,6 hPa 0,0 l/m 0 min 0 min 0 W/m 41,8 km/h (6 Bft) 100,00 %
15.01.2023 19:18 6,7 C 6,1 C 2,8 C 81 % 1002,6 hPa 0,0 l/m 0 min 0 min 0 W/m 29,0 km/h (5 Bft) 100,00 %
15.01.2023 19:20 6,6 C 6,1 C 2,2 C 81 % 1002,6 hPa 0,0 l/m 0 min 0 min 0 W/m 35,4 km/h (5 Bft) 93,62 %
15.01.2023 19:22 6,6 C 6,1 C 2,2 C 81 % 1002,6 hPa 0,0 l/m 0 min 0 min 0 W/m 32,2 km/h (5 Bft) 97,87 %
15.01.2023 19:24 6,6 C 5,6 C 2,2 C 81 % 1002,6 hPa 0,0 l/m 0 min 0 min 0 W/m 25,7 km/h (4 Bft) 95,74 %
15.01.2023 19:26 6,6 C 5,6 C 2,2 C 81 % 1002,6 hPa 0,0 l/m 0 min 0 min 0 W/m 32,2 km/h (5 Bft) 95,74 %
15.01.2023 19:28 6,5 C 5,6 C 2,2 C 81 % 1002,6 hPa 0,0 l/m 0 min 0 min 0 W/m 38,6 km/h (5 Bft) 97,87 %
15.01.2023 19:30 6,5 C 5,6 C 2,2 C 82 % 1002,5 hPa 0,0 l/m 0 min 0 min 0 W/m 35,4 km/h (5 Bft) 93,48 %
15.01.2023 19:32 6,5 C 5,6 C 2,2 C 82 % 1002,6 hPa 0,0 l/m 0 min 0 min 0 W/m 29,0 km/h (5 Bft) 97,87 %
15.01.2023 19:34 6,4 C 5,6 C 2,2 C 82 % 1002,5 hPa 0,0 l/m 0 min 0 min 0 W/m 29,0 km/h (5 Bft) 97,87 %
15.01.2023 19:36 6,4 C 5,6 C 2,2 C 82 % 1002,5 hPa 0,0 l/m 0 min 0 min 0 W/m 25,7 km/h (4 Bft) 97,87 %
15.01.2023 19:38 6,4 C 5,6 C 2,2 C 82 % 1002,5 hPa 0,0 l/m 0 min 0 min 0 W/m 22,5 km/h (4 Bft) 97,87 %
15.01.2023 19:40 6,3 C 5,6 C 2,2 C 82 % 1002,4 hPa 0,0 l/m 0 min 0 min 0 W/m 35,4 km/h (5 Bft) 97,87 %
15.01.2023 19:42 6,3 C 5,6 C 2,2 C 83 % 1002,5 hPa 0,0 l/m 0 min 0 min 0 W/m 19,3 km/h (3 Bft) 97,83 %
15.01.2023 19:44 6,3 C 5,6 C 2,2 C 83 % 1002,5 hPa 0,0 l/m 0 min 0 min 0 W/m 22,5 km/h (4 Bft) 97,87 %
15.01.2023 19:46 6,3 C 5,6 C 2,2 C 83 % 1002,4 hPa 0,0 l/m 0 min 0 min 0 W/m 22,5 km/h (4 Bft) 97,87 %
15.01.2023 19:48 6,3 C 5,6 C 2,2 C 83 % 1002,4 hPa 0,0 l/m 0 min 0 min 0 W/m 38,6 km/h (5 Bft) 95,74 %
15.01.2023 19:50 6,3 C 5,6 C 2,2 C 83 % 1002,5 hPa 0,0 l/m 0 min 0 min 0 W/m 16,1 km/h (3 Bft) 95,74 %
15.01.2023 19:52 6,3 C 5,6 C 2,2 C 83 % 1002,4 hPa 0,0 l/m 0 min 0 min 0 W/m 22,5 km/h (4 Bft) 97,87 %
15.01.2023 19:54 6,3 C 5,6 C 2,2 C 83 % 1002,4 hPa 0,0 l/m 0 min 0 min 0 W/m 16,1 km/h (3 Bft) 97,87 %
15.01.2023 19:56 6,3 C 5,6 C 2,2 C 82 % 1002,4 hPa 0,0 l/m 0 min 0 min 0 W/m 35,4 km/h (5 Bft) 97,83 %
15.01.2023 19:58 6,3 C 5,6 C 2,2 C 82 % 1002,4 hPa 0,0 l/m 0 min 0 min 0 W/m 22,5 km/h (4 Bft) 97,87 %
15.01.2023 20:00 6,3 C 5,6 C 2,2 C 82 % 1002,3 hPa 0,0 l/m 0 min 0 min 0 W/m 16,1 km/h (3 Bft) 94,44 %
15.01.2023 20:02 6,3 C 5,6 C 2,2 C 82 % 1002,3 hPa 0,0 l/m 0 min 0 min 0 W/m 19,3 km/h (3 Bft) 97,87 %
15.01.2023 20:04 6,3 C 5,6 C 2,2 C 82 % 1002,3 hPa 0,0 l/m 0 min 0 min 0 W/m 19,3 km/h (3 Bft) 100,00 %
15.01.2023 20:06 6,3 C 5,6 C 2,2 C 82 % 1002,2 hPa 0,0 l/m 0 min 0 min 0 W/m 19,3 km/h (3 Bft) 100,00 %
15.01.2023 20:08 6,3 C 5,6 C 2,2 C 82 % 1002,2 hPa 0,0 l/m 0 min 0 min 0 W/m 22,5 km/h (4 Bft) 100,00 %
15.01.2023 20:10 6,3 C 5,6 C 2,2 C 82 % 1002,2 hPa 0,0 l/m 0 min 0 min 0 W/m 22,5 km/h (4 Bft) 100,00 %
15.01.2023 20:12 6,3 C 5,6 C 2,2 C 82 % 1002,2 hPa 0,0 l/m 0 min 0 min 0 W/m 19,3 km/h (3 Bft) 100,00 %
15.01.2023 20:14 6,3 C 5,6 C 2,2 C 82 % 1002,2 hPa 0,0 l/m 0 min 0 min 0 W/m 25,7 km/h (4 Bft) 100,00 %
15.01.2023 20:16 6,3 C 5,6 C 2,2 C 82 % 1002,2 hPa 0,0 l/m 0 min 0 min 0 W/m 22,5 km/h (4 Bft) 100,00 %
15.01.2023 20:18 6,3 C 5,6 C 2,2 C 82 % 1002,2 hPa 0,0 l/m 0 min 0 min 0 W/m 19,3 km/h (3 Bft) 100,00 %
15.01.2023 20:20 6,3 C 5,6 C 2,2 C 82 % 1002,1 hPa 0,0 l/m 0 min 0 min 0 W/m 22,5 km/h (4 Bft) 97,87 %
15.01.2023 20:22 6,3 C 5,6 C 2,2 C 82 % 1002,1 hPa 0,0 l/m 0 min 0 min 0 W/m 22,5 km/h (4 Bft) 95,65 %
15.01.2023 20:24 6,3 C 5,6 C 2,2 C 82 % 1002,0 hPa 0,0 l/m 0 min 0 min 0 W/m 19,3 km/h (3 Bft) 100,00 %
15.01.2023 20:26 6,3 C 5,6 C 2,2 C 82 % 1002,0 hPa 0,0 l/m 0 min 0 min 0 W/m 12,9 km/h (3 Bft) 100,00 %
15.01.2023 20:28 6,3 C 5,6 C 2,2 C 82 % 1001,9 hPa 0,0 l/m 0 min 0 min 0 W/m 16,1 km/h (3 Bft) 95,74 %
15.01.2023 20:30 6,3 C 5,6 C 2,2 C 82 % 1001,9 hPa 0,0 l/m 0 min 0 min 0 W/m 19,3 km/h (3 Bft) 95,74 %
15.01.2023 20:32 6,2 C 5,6 C 2,2 C 81 % 1001,9 hPa 0,0 l/m 0 min 0 min 0 W/m 16,1 km/h (3 Bft) 97,87 %
15.01.2023 20:34 6,2 C 5,6 C 2,2 C 82 % 1001,8 hPa 0,0 l/m 0 min 0 min 0 W/m 22,5 km/h (4 Bft) 97,83 %
15.01.2023 20:36 6,2 C 5,6 C 2,2 C 82 % 1001,8 hPa 0,0 l/m 0 min 0 min 0 W/m 19,3 km/h (3 Bft) 97,87 %
15.01.2023 20:38 6,2 C 5,6 C 2,2 C 82 % 1001,9 hPa 0,0 l/m 0 min 0 min 0 W/m 16,1 km/h (3 Bft) 97,87 %
15.01.2023 20:40 6,1 C 5,0 C 1,7 C 82 % 1001,8 hPa 0,0 l/m 0 min 0 min 0 W/m 19,3 km/h (3 Bft) 97,87 %
15.01.2023 20:42 6,1 C 5,6 C 1,7 C 82 % 1001,8 hPa 0,0 l/m 0 min 0 min 0 W/m 22,5 km/h (4 Bft) 97,87 %
15.01.2023 20:44 6,1 C 5,6 C 2,2 C 82 % 1001,8 hPa 0,0 l/m 0 min 0 min 0 W/m 16,1 km/h (3 Bft) 97,87 %
15.01.2023 20:46 6,1 C 5,6 C 2,2 C 82 % 1001,8 hPa 0,0 l/m 0 min 0 min 0 W/m 12,9 km/h (3 Bft) 97,87 %
15.01.2023 20:48 6,1 C 5,6 C 2,2 C 82 % 1001,8 hPa 0,0 l/m 0 min 0 min 0 W/m 19,3 km/h (3 Bft) 97,83 %
15.01.2023 20:50 6,1 C 5,6 C 2,2 C 82 % 1001,8 hPa 0,0 l/m 0 min 0 min 0 W/m 12,9 km/h (3 Bft) 91,49 %
15.01.2023 20:52 6,1 C 5,6 C 2,2 C 82 % 1001,7 hPa 0,0 l/m 0 min 0 min 0 W/m 16,1 km/h (3 Bft) 95,74 %
15.01.2023 20:54 6,1 C 5,6 C 2,2 C 82 % 1001,7 hPa 0,0 l/m 0 min 0 min 0 W/m 19,3 km/h (3 Bft) 95,74 %
15.01.2023 20:56 6,1 C 5,6 C 2,2 C 82 % 1001,7 hPa 0,0 l/m 0 min 0 min 0 W/m 16,1 km/h (3 Bft) 72,34 %
15.01.2023 20:58 6,1 C 5,6 C 2,2 C 82 % 1001,7 hPa 0,0 l/m 0 min 0 min 0 W/m 19,3 km/h (3 Bft) 40,43 %
15.01.2023 21:00 6,1 C 5,6 C 2,2 C 82 % 1001,7 hPa 0,0 l/m 0 min 0 min 0 W/m 9,7 km/h (2 Bft) 65,22 %
15.01.2023 21:02 6,1 C 5,6 C 2,2 C 82 % 1001,7 hPa 0,0 l/m 0 min 0 min 0 W/m 19,3 km/h (3 Bft) 59,57 %
15.01.2023 21:04 6,1 C 5,6 C 2,2 C 82 % 1001,7 hPa 0,0 l/m 0 min 0 min 0 W/m 12,9 km/h (3 Bft) 61,70 %
15.01.2023 21:06 6,1 C 5,6 C 2,2 C 82 % 1001,6 hPa 0,0 l/m 0 min 0 min 0 W/m 19,3 km/h (3 Bft) 78,72 %
15.01.2023 21:08 6,1 C 5,6 C 2,2 C 82 % 1001,6 hPa 0,0 l/m 0 min 0 min 0 W/m 19,3 km/h (3 Bft) 70,21 %
15.01.2023 21:10 6,1 C 5,6 C 2,2 C 82 % 1001,6 hPa 0,0 l/m 0 min 0 min 0 W/m 22,5 km/h (4 Bft) 42,55 %
15.01.2023 21:12 6,1 C 5,6 C 2,2 C 82 % 1001,6 hPa 0,0 l/m 0 min 0 min 0 W/m 22,5 km/h (4 Bft) 48,94 %
15.01.2023 21:14 6,1 C 5,6 C 2,2 C 82 % 1001,6 hPa 0,0 l/m 0 min 2 min 0 W/m 19,3 km/h (3 Bft) 54,35 %
15.01.2023 21:16 6,1 C 5,6 C 1,7 C 82 % 1001,5 hPa 0,0 l/m 0 min 0 min 0 W/m 25,7 km/h (4 Bft) 61,70 %
15.01.2023 21:18 6,1 C 5,6 C 1,7 C 82 % 1001,5 hPa 0,0 l/m 0 min 0 min 0 W/m 22,5 km/h (4 Bft) 48,94 %
15.01.2023 21:20 6,1 C 5,6 C 1,7 C 82 % 1001,5 hPa 0,0 l/m 0 min 0 min 0 W/m 19,3 km/h (3 Bft) 34,04 %
15.01.2023 21:22 6,1 C 5,6 C 2,2 C 82 % 1001,5 hPa 0,0 l/m 0 min 0 min 0 W/m 22,5 km/h (4 Bft) 31,91 %
15.01.2023 21:24 6,2 C 5,6 C 2,2 C 82 % 1001,4 hPa 0,0 l/m 0 min 0 min 0 W/m 25,7 km/h (4 Bft) 34,04 %
15.01.2023 21:26 6,2 C 5,6 C 2,2 C 82 % 1001,4 hPa 0,0 l/m 0 min 0 min 0 W/m 22,5 km/h (4 Bft) 46,81 %
15.01.2023 21:28 6,2 C 5,6 C 2,2 C 82 % 1001,3 hPa 0,0 l/m 0 min 0 min 0 W/m 16,1 km/h (3 Bft) 91,30 %
15.01.2023 21:30 6,2 C 5,6 C 2,2 C 82 % 1001,3 hPa 0,0 l/m 0 min 0 min 0 W/m 19,3 km/h (3 Bft) 95,74 %
15.01.2023 21:32 6,2 C 5,6 C 2,2 C 82 % 1001,3 hPa 0,0 l/m 0 min 0 min 0 W/m 16,1 km/h (3 Bft) 93,62 %
15.01.2023 21:34 6,3 C 5,6 C 2,2 C 82 % 1001,2 hPa 0,0 l/m 0 min 0 min 0 W/m 16,1 km/h (3 Bft) 95,74 %
15.01.2023 21:36 6,3 C 5,6 C 2,2 C 82 % 1001,2 hPa 0,0 l/m 0 min 0 min 0 W/m 16,1 km/h (3 Bft) 97,87 %
15.01.2023 21:38 6,3 C 5,6 C 2,2 C 82 % 1001,2 hPa 0,0 l/m 0 min 0 min 0 W/m 16,1 km/h (3 Bft) 97,87 %
15.01.2023 21:40 6,3 C 5,6 C 2,2 C 82 % 1001,2 hPa 0,0 l/m 0 min 0 min 0 W/m 19,3 km/h (3 Bft) 91,49 %
15.01.2023 21:42 6,3 C 5,6 C 2,2 C 82 % 1001,2 hPa 0,0 l/m 0 min 0 min 0 W/m 19,3 km/h (3 Bft) 97,83 %
15.01.2023 21:44 6,3 C 5,6 C 2,2 C 82 % 1001,2 hPa 0,0 l/m 0 min 0 min 0 W/m 16,1 km/h (3 Bft) 97,87 %
15.01.2023 21:46 6,3 C 5,6 C 2,2 C 82 % 1001,1 hPa 0,0 l/m 0 min 0 min 0 W/m 19,3 km/h (3 Bft) 97,87 %
15.01.2023 21:48 6,3 C 5,6 C 2,2 C 82 % 1001,0 hPa 0,0 l/m 0 min 0 min 0 W/m 19,3 km/h (3 Bft) 100,00 %
15.01.2023 21:50 6,3 C 5,6 C 2,2 C 82 % 1001,0 hPa 0,0 l/m 0 min 0 min 0 W/m 12,9 km/h (3 Bft) 93,62 %
15.01.2023 21:52 6,3 C 5,6 C 2,2 C 82 % 1000,9 hPa 0,0 l/m 0 min 0 min 0 W/m 6,4 km/h (2 Bft) 97,87 %
15.01.2023 21:54 6,3 C 5,6 C 2,2 C 82 % 1000,9 hPa 0,0 l/m 0 min 0 min 0 W/m 22,5 km/h (4 Bft) 97,83 %
15.01.2023 21:56 6,3 C 5,6 C 2,2 C 82 % 1000,9 hPa 0,0 l/m 0 min 0 min 0 W/m 19,3 km/h (3 Bft) 97,87 %
15.01.2023 21:58 6,3 C 5,6 C 2,2 C 82 % 1000,8 hPa 0,0 l/m 0 min 0 min 0 W/m 22,5 km/h (4 Bft) 95,74 %
15.01.2023 22:00 6,4 C 5,6 C 2,2 C 82 % 1000,8 hPa 0,0 l/m 0 min 0 min 0 W/m 32,2 km/h (5 Bft) 97,87 %
15.01.2023 22:02 6,4 C 6,1 C 2,2 C 81 % 1000,7 hPa 0,0 l/m 0 min 0 min 0 W/m 29,0 km/h (5 Bft) 97,87 %
15.01.2023 22:04 6,4 C 6,1 C 2,2 C 82 % 1000,7 hPa 0,0 l/m 0 min 0 min 0 W/m 19,3 km/h (3 Bft) 95,74 %
15.01.2023 22:06 6,5 C 6,1 C 2,2 C 81 % 1000,6 hPa 0,0 l/m 0 min 0 min 0 W/m 22,5 km/h (4 Bft) 97,87 %
15.01.2023 22:08 6,5 C 6,1 C 2,2 C 81 % 1000,7 hPa 0,0 l/m 0 min 0 min 0 W/m 29,0 km/h (5 Bft) 97,83 %
15.01.2023 22:10 6,5 C 6,1 C 2,2 C 81 % 1000,6 hPa 0,0 l/m 0 min 0 min 0 W/m 22,5 km/h (4 Bft) 97,44 %
15.01.2023 22:12 6,5 C 6,1 C 2,2 C 81 % 1000,5 hPa 0,0 l/m 0 min 0 min 0 W/m 25,7 km/h (4 Bft) 95,83 %
15.01.2023 22:14 6,5 C 6,1 C 2,2 C 81 % 1000,5 hPa 0,0 l/m 0 min 0 min 0 W/m 29,0 km/h (5 Bft) 97,87 %
15.01.2023 22:16 6,6 C 6,1 C 2,2 C 81 % 1000,5 hPa 0,0 l/m 0 min 0 min 0 W/m 32,2 km/h (5 Bft) 93,62 %
15.01.2023 22:18 6,6 C 5,6 C 2,2 C 81 % 1000,5 hPa 0,0 l/m 0 min 0 min 0 W/m 22,5 km/h (4 Bft) 95,74 %
15.01.2023 22:20 6,6 C 5,6 C 2,2 C 81 % 1000,4 hPa 0,0 l/m 0 min 0 min 0 W/m 29,0 km/h (5 Bft) 97,87 %
15.01.2023 22:22 6,6 C 5,6 C 2,2 C 81 % 1000,5 hPa 0,0 l/m 0 min 0 min 0 W/m 41,8 km/h (6 Bft) 95,74 %
15.01.2023 22:24 6,6 C 5,6 C 2,2 C 82 % 1000,3 hPa 0,0 l/m 0 min 0 min 0 W/m 29,0 km/h (5 Bft) 95,65 %
15.01.2023 22:26 6,5 C 5,6 C 2,2 C 82 % 1000,4 hPa 0,0 l/m 0 min 0 min 0 W/m 45,1 km/h (6 Bft) 95,74 %
15.01.2023 22:28 6,5 C 5,6 C 2,2 C 82 % 1000,2 hPa 0,0 l/m 0 min 0 min 0 W/m 29,0 km/h (5 Bft) 93,62 %
15.01.2023 22:30 6,5 C 5,6 C 2,2 C 82 % 1000,2 hPa 0,0 l/m 0 min 0 min 0 W/m 32,2 km/h (5 Bft) 89,36 %
15.01.2023 22:32 6,5 C 5,6 C 2,2 C 82 % 1000,2 hPa 0,0 l/m 0 min 0 min 0 W/m 19,3 km/h (3 Bft) 95,74 %
15.01.2023 22:34 6,5 C 5,6 C 2,2 C 82 % 1000,1 hPa 0,0 l/m 0 min 0 min 0 W/m 25,7 km/h (4 Bft) 95,74 %
15.01.2023 22:36 6,5 C 5,6 C 2,2 C 82 % 1000,1 hPa 0,0 l/m 0 min 0 min 0 W/m 19,3 km/h (3 Bft) 93,62 %
15.01.2023 22:38 6,4 C 5,6 C 2,2 C 83 % 1000,1 hPa 0,0 l/m 0 min 0 min 0 W/m 25,7 km/h (4 Bft) 97,83 %
15.01.2023 22:40 6,4 C 5,6 C 2,2 C 83 % 1000,1 hPa 0,0 l/m 0 min 0 min 0 W/m 19,3 km/h (3 Bft) 100,00 %
15.01.2023 22:42 6,4 C 5,6 C 2,2 C 83 % 1000,0 hPa 0,0 l/m 0 min 0 min 0 W/m 25,7 km/h (4 Bft) 95,74 %
15.01.2023 22:44 6,4 C 5,6 C 2,2 C 83 % 1000,0 hPa 0,0 l/m 0 min 0 min 0 W/m 32,2 km/h (5 Bft) 97,87 %
15.01.2023 22:46 6,4 C 5,6 C 2,2 C 83 % 999,9 hPa 0,0 l/m 0 min 0 min 0 W/m 25,7 km/h (4 Bft) 97,87 %
15.01.2023 22:48 6,4 C 5,6 C 2,2 C 83 % 999,9 hPa 0,0 l/m 0 min 0 min 0 W/m 25,7 km/h (4 Bft) 95,74 %
15.01.2023 22:50 6,4 C 5,6 C 2,2 C 83 % 999,9 hPa 0,0 l/m 0 min 0 min 0 W/m 19,3 km/h (3 Bft) 95,65 %
15.01.2023 22:52 6,4 C 5,6 C 2,2 C 83 % 999,9 hPa 0,0 l/m 0 min 0 min 0 W/m 16,1 km/h (3 Bft) 97,87 %
15.01.2023 22:54 6,4 C 5,6 C 2,2 C 83 % 999,9 hPa 0,0 l/m 0 min 0 min 0 W/m 29,0 km/h (5 Bft) 93,62 %
15.01.2023 22:56 6,3 C 5,6 C 2,2 C 83 % 999,8 hPa 0,0 l/m 0 min 0 min 0 W/m 29,0 km/h (5 Bft) 97,87 %
15.01.2023 22:58 6,3 C 5,6 C 2,2 C 83 % 999,8 hPa 0,0 l/m 0 min 0 min 0 W/m 29,0 km/h (5 Bft) 100,00 %
15.01.2023 23:00 6,3 C 5,6 C 2,2 C 83 % 999,9 hPa 0,0 l/m 0 min 0 min 0 W/m 25,7 km/h (4 Bft) 95,74 %
15.01.2023 23:02 6,3 C 5,6 C 2,2 C 83 % 999,7 hPa 0,0 l/m 0 min 0 min 0 W/m 22,5 km/h (4 Bft) 100,00 %
15.01.2023 23:04 6,3 C 5,6 C 2,2 C 83 % 999,7 hPa 0,0 l/m 0 min 0 min 0 W/m 16,1 km/h (3 Bft) 100,00 %
15.01.2023 23:06 6,3 C 5,6 C 2,2 C 83 % 999,6 hPa 0,0 l/m 0 min 0 min 0 W/m 25,7 km/h (4 Bft) 95,74 %
15.01.2023 23:08 6,3 C 5,6 C 2,2 C 83 % 999,6 hPa 0,0 l/m 0 min 0 min 0 W/m 25,7 km/h (4 Bft) 97,87 %
15.01.2023 23:10 6,3 C 5,6 C 2,2 C 83 % 999,6 hPa 0,0 l/m 0 min 0 min 0 W/m 22,5 km/h (4 Bft) 100,00 %
15.01.2023 23:12 6,3 C 5,6 C 2,2 C 83 % 999,6 hPa 0,0 l/m 0 min 0 min 0 W/m 16,1 km/h (3 Bft) 97,87 %
15.01.2023 23:14 6,2 C 5,6 C 2,2 C 83 % 999,5 hPa 0,0 l/m 0 min 0 min 0 W/m 29,0 km/h (5 Bft) 100,00 %
15.01.2023 23:16 6,2 C 5,6 C 2,2 C 83 % 999,5 hPa 0,0 l/m 0 min 0 min 0 W/m 32,2 km/h (5 Bft) 100,00 %
15.01.2023 23:18 6,2 C 5,6 C 2,2 C 83 % 999,6 hPa 0,0 l/m 0 min 0 min 0 W/m 22,5 km/h (4 Bft) 97,83 %
15.01.2023 23:20 6,2 C 5,6 C 2,2 C 83 % 999,5 hPa 0,0 l/m 0 min 0 min 0 W/m 22,5 km/h (4 Bft) 97,87 %
15.01.2023 23:22 6,2 C 5,6 C 2,2 C 83 % 999,5 hPa 0,0 l/m 0 min 0 min 0 W/m 16,1 km/h (3 Bft) 100,00 %
15.01.2023 23:24 6,2 C 5,6 C 1,7 C 83 % 999,4 hPa 0,0 l/m 0 min 0 min 0 W/m 19,3 km/h (3 Bft) 95,74 %
15.01.2023 23:26 6,1 C 5,6 C 1,7 C 83 % 999,4 hPa 0,0 l/m 0 min 0 min 0 W/m 19,3 km/h (3 Bft) 97,87 %
15.01.2023 23:28 6,1 C 5,0 C 1,7 C 84 % 999,3 hPa 0,0 l/m 0 min 0 min 0 W/m 16,1 km/h (3 Bft) 100,00 %
15.01.2023 23:30 6,1 C 5,0 C 1,7 C 84 % 999,3 hPa 0,0 l/m 0 min 0 min 0 W/m 12,9 km/h (3 Bft) 100,00 %
15.01.2023 23:32 6,1 C 5,0 C 1,7 C 84 % 999,3 hPa 0,0 l/m 0 min 0 min 0 W/m 19,3 km/h (3 Bft) 97,83 %
15.01.2023 23:34 6,0 C 5,0 C 1,7 C 84 % 999,2 hPa 0,0 l/m 0 min 0 min 0 W/m 19,3 km/h (3 Bft) 97,87 %
15.01.2023 23:36 6,0 C 5,0 C 1,7 C 84 % 999,3 hPa 0,0 l/m 0 min 0 min 0 W/m 16,1 km/h (3 Bft) 100,00 %
15.01.2023 23:38 6,0 C 5,0 C 1,7 C 84 % 999,2 hPa 0,0 l/m 0 min 0 min 0 W/m 19,3 km/h (3 Bft) 100,00 %
15.01.2023 23:40 5,9 C 5,0 C 1,7 C 84 % 999,2 hPa 0,0 l/m 0 min 0 min 0 W/m 22,5 km/h (4 Bft) 100,00 %
15.01.2023 23:42 5,9 C 5,0 C 1,7 C 84 % 999,1 hPa 0,0 l/m 0 min 0 min 0 W/m 16,1 km/h (3 Bft) 100,00 %
15.01.2023 23:44 5,9 C 5,0 C 1,7 C 84 % 999,1 hPa 0,0 l/m 0 min 0 min 0 W/m 19,3 km/h (3 Bft) 100,00 %
15.01.2023 23:46 5,9 C 5,0 C 1,7 C 84 % 999,0 hPa 0,0 l/m 0 min 0 min 0 W/m 22,5 km/h (4 Bft) 100,00 %
15.01.2023 23:48 5,9 C 5,0 C 1,7 C 84 % 999,0 hPa 0,0 l/m 0 min 2 min 0 W/m 19,3 km/h (3 Bft) 97,87 %
15.01.2023 23:50 5,9 C 5,0 C 1,7 C 84 % 999,0 hPa 0,0 l/m 0 min 2 min 0 W/m 19,3 km/h (3 Bft) 97,87 %
15.01.2023 23:52 5,9 C 5,0 C 1,1 C 85 % 999,0 hPa 0,0 l/m 0 min 2 min 0 W/m 22,5 km/h (4 Bft) 97,87 %
15.01.2023 23:54 5,9 C 5,0 C 1,1 C 85 % 998,9 hPa 0,0 l/m 0 min 2 min 0 W/m 19,3 km/h (3 Bft) 97,87 %
15.01.2023 23:56 5,9 C 5,0 C 1,1 C 85 % 998,9 hPa 0,0 l/m 0 min 2 min 0 W/m 12,9 km/h (3 Bft) 95,74 %
15.01.2023 23:58 5,8 C 5,0 C 1,1 C 86 % 998,8 hPa 0,0 l/m 0 min 2 min 0 W/m 12,9 km/h (3 Bft) 97,83 %
_ Min-Zeit 10:10 09:48 23:52 15:32 23:58 - - - - 00:50 04:05
Minimum _ 5,7 C 5,0 C 1,1 C 76 % 998,8 hPa - - - - 6,4 km/h (2 Bft) 4,76 %
_ Max-Zeit 00:00 13:30 00:00 01:08 18:50 00:16 10:18 00:12 11:04 12:10 00:08
Maximum _ 9,1 C 8,9 C 3,9 C 95 % 1002,6 hPa 0,2 l/m 2 min 4 min 312 W/m 67,6 km/h
S (8 Bft)
100,00 %
Durchschnitt _ 6,7 C 6,1 C 2,8 C 84 % 1001,0 hPa #1,6 l/m #1:10 h #1:32 h 84 W/m 26,6 km/h (4 Bft) 95,03 %
© 2023 W. Hausmann